| time (UTC) | temp F | wind direction | speed knots | gust knots | rain 1hr in | rain 24hr in | rain mn in | humidity % | barometer mb |
| 20260902194823 | 59 | 233 | 1.7 | 3.5 | 0.00 | 0.00 | 0.00 | 100 | 906.2 |
| 20260902194614 | 60 | 228 | 1.7 | 3.5 | 0.00 | 0.00 | 0.00 | 100 | 906.2 |
| 20260902194405 | 60 | 227 | 1.7 | 3.5 | 0.00 | 0.00 | 0.00 | 100 | 906.2 |
| 20260902194157 | 60 | 218 | 1.7 | 3.5 | 0.00 | 0.00 | 0.00 | 100 | 906.1 |
| 20260902194054 | 59 | 212 | 1.7 | 3.5 | 0.00 | 0.00 | 0.00 | 100 | 906.0 |
| 20260902193947 | 59 | 215 | 1.7 | 2.6 | 0.00 | 0.00 | 0.00 | 100 | 906.0 |
| 20260902193739 | 59 | 213 | 1.7 | 3.5 | 0.00 | 0.00 | 0.00 | 100 | 906.0 |
| 20260902193530 | 59 | 211 | 1.7 | 3.5 | 0.00 | 0.00 | 0.00 | 100 | 906.1 |
| 20260902193332 | 59 | 220 | 1.7 | 3.5 | 0.00 | 0.00 | 0.00 | 100 | 906.1 |
| 20260902193123 | 59 | 212 | 1.7 | 2.6 | 0.00 | 0.00 | 0.00 | 100 | 906.1 |
| 20260902193020 | 59 | 210 | 1.7 | 2.6 | 0.00 | 0.00 | 0.00 | 100 | 906.2 |
| 20260902192925 | 59 | 210 | 1.7 | 2.6 | 0.00 | 0.00 | 0.00 | 100 | 906.2 |
| 20260902192914 | 59 | 210 | 1.7 | 2.6 | 0.00 | 0.00 | 0.00 | 100 | 906.1 |
| 20260902192705 | 59 | 210 | 1.7 | 2.6 | 0.00 | 0.00 | 0.00 | 100 | 906.1 |
| 20260902192457 | 59 | 214 | 1.7 | 2.6 | 0.00 | 0.00 | 0.00 | 100 | 906.1 |
| 20260902192248 | 60 | 214 | 1.7 | 1.7 | 0.00 | 0.00 | 0.00 | 100 | 906.3 |
| 20260902192039 | 60 | 212 | 1.7 | 2.6 | 0.00 | 0.00 | 0.00 | 100 | 906.1 |
| 20260902191936 | 59 | 213 | 0.9 | 2.6 | 0.00 | 0.00 | 0.00 | 100 | 906.2 |
| 20260902191830 | 59 | 221 | 0.9 | 1.7 | 0.00 | 0.00 | 0.00 | 100 | 906.2 |
| 20260902191643 | 60 | 219 | 0.9 | 1.7 | 0.00 | 0.00 | 0.00 | 100 | 906.2 |
| 20260902191632 | 59 | 219 | 0.9 | 1.7 | 0.00 | 0.00 | 0.00 | 100 | 906.2 |
| 20260902191423 | 59 | 227 | 0.9 | 2.6 | 0.00 | 0.00 | 0.00 | 100 | 906.2 |
| 20260902191215 | 59 | 230 | 1.7 | 2.6 | 0.00 | 0.00 | 0.00 | 100 | 906.2 |
| 20260902191006 | 60 | 228 | 1.7 | 2.6 | 0.00 | 0.00 | 0.00 | 100 | 906.1 |
| 20260902190903 | 59 | 230 | 1.7 | 2.6 | 0.00 | 0.00 | 0.00 | 100 | 906.2 |
| 20260902190752 | 59 | 227 | 1.7 | 2.6 | 0.00 | 0.00 | 0.00 | 100 | 906.3 |
| 20260902190544 | 59 | 219 | 0.9 | 2.6 | 0.00 | 0.00 | 0.00 | 100 | 906.3 |
| 20260902190335 | 60 | 223 | 0.9 | 2.6 | 0.00 | 0.00 | 0.00 | 100 | 906.2 |
| 20260902190137 | 59 | 251 | 0.9 | 3.5 | 0.00 | 0.00 | 0.00 | 100 | 906.2 |
| 20260902185929 | 59 | 208 | 1.7 | 3.5 | 0.00 | 0.00 | 0.00 | 100 | 906.2 |
| 20260902185825 | 59 | 209 | 0.9 | 2.6 | 0.00 | 0.00 | 0.00 | 100 | 906.1 |
| 20260902185719 | 59 | 212 | 1.7 | 2.6 | 0.00 | 0.00 | 0.00 | 100 | 906.2 |
| 20260902185511 | 59 | 239 | 0.9 | 2.6 | 0.00 | 0.00 | 0.00 | 100 | 906.2 |
| 20260902185306 | 59 | 286 | 0.9 | 2.6 | 0.00 | 0.00 | 0.00 | 100 | 906.4 |
| 20260902185053 | 59 | 340 | 0.9 | 1.7 | 0.00 | 0.00 | 0.00 | 100 | 906.3 |
| 20260902184845 | 59 | 349 | 0.9 | 1.7 | 0.00 | 0.00 | 0.00 | 100 | 906.3 |
| 20260902184741 | 59 | 334 | 0.9 | 0.9 | 0.00 | 0.00 | 0.00 | 100 | 906.3 |
| 20260902184635 | 59 | 322 | 0.9 | 0.9 | 0.00 | 0.00 | 0.00 | 100 | 906.4 |
| 20260902184437 | 59 | 323 | 0.0 | 0.9 | 0.00 | 0.00 | 0.00 | 100 | 906.3 |
| 20260902184229 | 59 | 316 | 0.9 | 1.7 | 0.00 | 0.00 | 0.00 | 100 | 906.4 |
| 20260902184020 | 59 | 296 | 0.9 | 1.7 | 0.00 | 0.00 | 0.00 | 100 | 906.4 |
| 20260902183823 | 59 | 243 | 0.0 | 1.7 | 0.00 | 0.00 | 0.00 | 100 | 906.3 |
| 20260902183811 | 59 | 243 | 0.0 | 1.7 | 0.00 | 0.00 | 0.00 | 100 | 906.5 |
| 20260902183710 | 59 | 204 | 0.0 | 1.7 | 0.00 | 0.00 | 0.00 | 100 | 906.5 |
| 20260902183600 | 59 | 167 | 0.0 | 0.9 | 0.00 | 0.00 | 0.00 | 100 | 906.4 |
| 20260902183352 | 59 | 0 | 0.0 | 0.9 | 0.00 | 0.00 | 0.00 | 100 | 906.4 |
| 20260902183143 | 59 | 113 | 0.0 | 0.9 | 0.00 | 0.00 | 0.00 | 100 | 906.4 |
| 20260902182945 | 59 | 139 | 0.9 | 1.7 | 0.00 | 0.00 | 0.00 | 100 | 906.2 |
| 20260902182736 | 59 | 146 | 0.9 | 1.7 | 0.00 | 0.00 | 0.00 | 100 | 906.3 |
| 20260902182633 | 59 | 149 | 0.9 | 1.7 | 0.00 | 0.00 | 0.00 | 100 | 906.3 |
| 20260902182527 | 59 | 148 | 0.9 | 1.7 | 0.00 | 0.00 | 0.00 | 100 | 906.3 |
| 20260902182318 | 59 | 118 | 0.0 | 0.9 | 0.00 | 0.00 | 0.00 | 100 | 906.3 |
| 20260902182110 | 59 | 99 | 0.0 | 0.9 | 0.00 | 0.00 | 0.00 | 100 | 906.3 |
| 20260902181901 | 59 | 102 | 0.0 | 0.9 | 0.00 | 0.00 | 0.00 | 100 | 906.2 |
| 20260902181653 | 59 | 95 | 0.0 | 0.9 | 0.00 | 0.00 | 0.00 | 100 | 906.3 |
| 20260902181549 | 59 | 90 | 0.0 | 0.9 | 0.00 | 0.00 | 0.00 | 100 | 906.4 |
| 20260902181443 | 59 | 79 | 0.0 | 0.9 | 0.00 | 0.00 | 0.00 | 100 | 906.4 |
| 20260902181245 | 59 | 62 | 0.0 | 0.9 | 0.00 | 0.00 | 0.00 | 100 | 906.3 |
| 20260902181037 | 59 | 46 | 0.0 | 0.9 | 0.00 | 0.00 | 0.00 | 100 | 906.3 |
| 20260902180828 | 59 | 5 | 0.0 | 0.9 | 0.00 | 0.00 | 0.00 | 100 | 906.4 |
| 20260902180619 | 59 | 342 | 0.0 | 0.9 | 0.00 | 0.00 | 0.00 | 100 | 906.3 |
| 20260902180516 | 59 | 327 | 0.0 | 0.9 | 0.00 | 0.00 | 0.00 | 100 | 906.3 |
| 20260902180410 | 59 | 330 | 0.0 | 0.9 | 0.00 | 0.00 | 0.00 | 100 | 906.3 |
| 20260902180201 | 59 | 318 | 0.0 | 0.9 | 0.00 | 0.00 | 0.00 | 100 | 906.4 |
| 20260902180006 | 59 | 302 | 0.9 | 1.7 | 0.00 | 0.00 | 0.00 | 100 | 906.2 |
| 20260902175953 | 60 | 302 | 0.9 | 1.7 | 0.00 | 0.00 | 0.00 | 100 | 906.2 |
| 20260902175744 | 60 | 300 | 0.9 | 1.7 | 0.00 | 0.00 | 0.00 | 100 | 906.2 |
| 20260902175546 | 59 | 306 | 0.9 | 1.7 | 0.00 | 0.00 | 0.00 | 100 | 906.2 |
| 20260902175443 | 59 | 308 | 0.9 | 1.7 | 0.00 | 0.00 | 0.00 | 100 | 906.2 |
| 20260902175336 | 59 | 311 | 0.9 | 2.6 | 0.00 | 0.00 | 0.00 | 100 | 906.1 |
| 20260902175128 | 60 | 307 | 0.0 | 1.7 | 0.00 | 0.00 | 0.00 | 100 | 906.2 |
| 20260902174920 | 60 | 322 | 0.0 | 1.7 | 0.00 | 0.00 | 0.00 | 100 | 906.2 |
| 20260902174711 | 60 | 321 | 0.0 | 1.7 | 0.00 | 0.00 | 0.00 | 100 | 906.2 |
| 20260902174502 | 60 | 298 | 0.9 | 1.7 | 0.00 | 0.00 | 0.00 | 100 | 906.2 |
| 20260902174359 | 60 | 299 | 0.9 | 2.6 | 0.00 | 0.00 | 0.00 | 100 | 906.2 |
| 20260902174253 | 60 | 299 | 0.9 | 2.6 | 0.00 | 0.00 | 0.00 | 100 | 906.0 |
| 20260902174044 | 60 | 304 | 1.7 | 2.6 | 0.00 | 0.00 | 0.00 | 100 | 906.1 |
| 20260902173846 | 60 | 315 | 1.7 | 2.6 | 0.00 | 0.00 | 0.00 | 100 | 906.0 |
| 20260902173649 | 60 | 302 | 1.7 | 2.6 | 0.00 | 0.00 | 0.00 | 100 | 906.0 |
| 20260902173636 | 60 | 302 | 1.7 | 2.6 | 0.00 | 0.00 | 0.00 | 100 | 906.1 |
| 20260902173428 | 60 | 300 | 0.9 | 1.7 | 0.00 | 0.00 | 0.00 | 100 | 906.1 |
| 20260902173325 | 60 | 300 | 0.9 | 2.6 | 0.00 | 0.00 | 0.00 | 100 | 906.1 |
| 20260902173219 | 60 | 307 | 0.9 | 2.6 | 0.00 | 0.00 | 0.00 | 100 | 906.1 |
| 20260902173010 | 60 | 324 | 0.9 | 2.6 | 0.00 | 0.00 | 0.00 | 100 | 906.0 |
| 20260902172802 | 61 | 327 | 0.9 | 2.6 | 0.00 | 0.00 | 0.00 | 100 | 906.2 |
| 20260902172553 | 61 | 316 | 1.7 | 2.6 | 0.00 | 0.00 | 0.00 | 100 | 906.0 |
| 20260902172344 | 61 | 300 | 1.7 | 2.6 | 0.00 | 0.00 | 0.00 | 100 | 906.0 |
| 20260902172241 | 61 | 295 | 1.7 | 2.6 | 0.00 | 0.00 | 0.00 | 100 | 905.9 |
| 20260902172145 | 61 | 293 | 1.7 | 3.5 | 0.00 | 0.00 | 0.00 | 100 | 905.9 |
| 20260902171937 | 61 | 293 | 1.7 | 3.5 | 0.00 | 0.00 | 0.00 | 100 | 906.0 |
| 20260902171729 | 61 | 295 | 2.6 | 4.3 | 0.00 | 0.00 | 0.00 | 100 | 905.9 |
| 20260902171520 | 61 | 294 | 2.6 | 6.1 | 0.00 | 0.00 | 0.00 | 100 | 905.9 |
| 20260902171311 | 61 | 294 | 1.7 | 6.1 | 0.00 | 0.00 | 0.00 | 100 | 905.9 |
| 20260902171208 | 61 | 295 | 1.7 | 4.3 | 0.00 | 0.00 | 0.00 | 100 | 906.0 |
| 20260902171101 | 61 | 295 | 1.7 | 4.3 | 0.00 | 0.00 | 0.00 | 100 | 905.9 |
| 20260902170904 | 61 | 276 | 1.7 | 4.3 | 0.00 | 0.00 | 0.00 | 100 | 905.9 |
| 20260902170853 | 61 | 276 | 1.7 | 4.3 | 0.00 | 0.00 | 0.00 | 100 | 906.0 |
| 20260902170645 | 61 | 270 | 0.9 | 2.6 | 0.00 | 0.00 | 0.00 | 100 | 906.1 |
| 20260902170446 | 61 | 277 | 1.7 | 4.3 | 0.00 | 0.00 | 0.00 | 100 | 906.1 |
| 20260902170238 | 61 | 290 | 1.7 | 4.3 | 0.00 | 0.00 | 0.00 | 100 | 905.9 |
| 20260902170135 | 61 | 286 | 1.7 | 4.3 | 0.00 | 0.00 | 0.00 | 100 | 905.9 |
| 20260902170028 | 61 | 281 | 1.7 | 3.5 | 0.00 | 0.00 | 0.00 | 100 | 906.0 |
| 20260902165831 | 61 | 286 | 1.7 | 3.5 | 0.00 | 0.00 | 0.00 | 100 | 906.0 |
| 20260902165820 | 61 | 286 | 1.7 | 3.5 | 0.00 | 0.00 | 0.00 | 100 | 906.1 |
| 20260902165611 | 61 | 295 | 1.7 | 4.3 | 0.00 | 0.00 | 0.00 | 100 | 906.0 |
| 20260902165403 | 61 | 294 | 2.6 | 5.2 | 0.00 | 0.00 | 0.00 | 100 | 905.9 |
| 20260902165154 | 61 | 293 | 3.5 | 5.2 | 0.00 | 0.00 | 0.00 | 100 | 905.9 |
| 20260902165051 | 61 | 294 | 3.5 | 5.2 | 0.00 | 0.00 | 0.00 | 100 | 905.9 |
| 20260902164944 | 61 | 294 | 2.6 | 5.2 | 0.00 | 0.00 | 0.00 | 100 | 905.8 |
| 20260902164747 | 61 | 291 | 2.6 | 7.0 | 0.00 | 0.00 | 0.00 | 100 | 905.8 |
| 20260902164549 | 61 | 281 | 2.6 | 7.0 | 0.00 | 0.00 | 0.00 | 100 | 905.8 |
| 20260902164538 | 61 | 281 | 2.6 | 7.0 | 0.00 | 0.00 | 0.00 | 100 | 905.9 |
| 20260902164329 | 61 | 288 | 3.5 | 7.0 | 0.00 | 0.00 | 0.00 | 100 | 905.9 |
| 20260902164120 | 61 | 292 | 3.5 | 7.0 | 0.00 | 0.00 | 0.00 | 100 | 905.8 |
| 20260902164017 | 61 | 290 | 2.6 | 7.0 | 0.00 | 0.00 | 0.00 | 100 | 905.8 |
| 20260902163911 | 62 | 278 | 2.6 | 5.2 | 0.00 | 0.00 | 0.00 | 100 | 905.9 |
| 20260902163702 | 62 | 276 | 2.6 | 6.1 | 0.00 | 0.00 | 0.00 | 100 | 905.9 |
| 20260902163454 | 61 | 278 | 2.6 | 7.0 | 0.00 | 0.00 | 0.00 | 100 | 905.9 |
| 20260902163245 | 62 | 277 | 2.6 | 7.0 | 0.00 | 0.00 | 0.00 | 100 | 905.9 |
| 20260902163047 | 62 | 268 | 2.6 | 4.3 | 0.00 | 0.00 | 0.00 | 100 | 905.9 |
| 20260902162944 | 62 | 271 | 2.6 | 4.3 | 0.00 | 0.00 | 0.00 | 100 | 906.0 |
| 20260902162838 | 62 | 265 | 2.6 | 4.3 | 0.00 | 0.00 | 0.00 | 100 | 905.9 |
| 20260902162629 | 61 | 275 | 1.7 | 5.2 | 0.00 | 0.00 | 0.00 | 100 | 905.9 |
| 20260902162421 | 62 | 294 | 3.5 | 8.7 | 0.00 | 0.00 | 0.00 | 100 | 905.9 |
| 20260902162206 | 62 | 297 | 4.3 | 8.7 | 0.00 | 0.00 | 0.00 | 100 | 905.8 |
| 20260902161958 | 62 | 297 | 2.6 | 7.8 | 0.00 | 0.00 | 0.00 | 100 | 905.8 |
| 20260902161854 | 62 | 297 | 1.7 | 5.2 | 0.00 | 0.00 | 0.00 | 100 | 905.9 |
| 20260902161759 | 62 | 296 | 1.7 | 4.3 | 0.00 | 0.00 | 0.00 | 100 | 905.9 |
| 20260902161550 | 62 | 292 | 2.6 | 5.2 | 0.00 | 0.00 | 0.00 | 100 | 905.8 |
| 20260902161342 | 62 | 294 | 3.5 | 7.0 | 0.00 | 0.00 | 0.00 | 100 | 905.8 |
| 20260902161133 | 62 | 296 | 4.3 | 7.0 | 0.00 | 0.00 | 0.00 | 100 | 905.7 |
| 20260902160924 | 62 | 296 | 4.3 | 9.6 | 0.00 | 0.00 | 0.00 | 100 | 905.7 |
| 20260902160821 | 62 | 293 | 4.3 | 9.6 | 0.00 | 0.00 | 0.00 | 100 | 905.7 |
| 20260902160715 | 62 | 290 | 4.3 | 9.6 | 0.00 | 0.00 | 0.00 | 100 | 905.7 |
| 20260902160506 | 62 | 290 | 5.2 | 8.7 | 0.00 | 0.00 | 0.00 | 100 | 905.7 |
| 20260902160258 | 62 | 293 | 3.5 | 8.7 | 0.00 | 0.00 | 0.00 | 100 | 905.6 |
| 20260902160100 | 62 | 292 | 3.5 | 7.0 | 0.00 | 0.00 | 0.00 | 100 | 905.9 |
| 20260902155851 | 62 | 296 | 3.5 | 7.0 | 0.00 | 0.00 | 0.00 | 100 | 905.9 |
| 20260902155748 | 62 | 297 | 3.5 | 7.8 | 0.00 | 0.00 | 0.00 | 100 | 906.0 |
| 20260902155641 | 63 | 297 | 3.5 | 7.8 | 0.00 | 0.00 | 0.00 | 100 | 906.1 |
| 20260902155444 | 63 | 297 | 2.6 | 7.8 | 0.00 | 0.00 | 0.00 | 100 | 906.1 |
| 20260902155433 | 62 | 297 | 2.6 | 7.8 | 0.00 | 0.00 | 0.00 | 100 | 906.2 |
| 20260902155225 | 62 | 296 | 3.5 | 9.6 | 0.00 | 0.00 | 0.00 | 100 | 906.2 |
| 20260902155015 | 62 | 296 | 5.2 | 9.6 | 0.00 | 0.00 | 0.00 | 100 | 905.9 |
| 20260902154807 | 62 | 298 | 5.2 | 8.7 | 0.00 | 0.00 | 0.00 | 100 | 905.8 |
| 20260902154703 | 62 | 297 | 4.3 | 8.7 | 0.00 | 0.00 | 0.00 | 100 | 905.6 |
| 20260902154557 | 62 | 298 | 3.5 | 8.7 | 0.00 | 0.00 | 0.00 | 100 | 905.7 |
| 20260902154359 | 62 | 297 | 3.5 | 7.0 | 0.00 | 0.00 | 0.00 | 100 | 905.7 |
| 20260902154202 | 62 | 296 | 3.5 | 7.0 | 0.00 | 0.00 | 0.00 | 100 | 905.6 |
| 20260902154151 | 62 | 296 | 3.5 | 7.0 | 0.00 | 0.00 | 0.00 | 100 | 905.7 |
| 20260902153942 | 62 | 297 | 4.3 | 7.8 | 0.00 | 0.00 | 0.00 | 100 | 905.6 |
| 20260902153734 | 63 | 299 | 4.3 | 8.7 | 0.00 | 0.00 | 0.00 | 100 | 905.5 |
| 20260902153630 | 63 | 297 | 5.2 | 8.7 | 0.00 | 0.00 | 0.00 | 100 | 905.4 |
| 20260902153524 | 63 | 294 | 5.2 | 11.3 | 0.00 | 0.00 | 0.00 | 100 | 905.4 |
| 20260902153315 | 63 | 284 | 3.5 | 11.3 | 0.00 | 0.00 | 0.00 | 100 | 905.3 |
| 20260902153107 | 63 | 295 | 3.5 | 7.0 | 0.00 | 0.00 | 0.00 | 100 | 905.6 |
| 20260902152909 | 64 | 295 | 2.6 | 7.0 | 0.00 | 0.00 | 0.00 | 100 | 905.5 |
| 20260902152858 | 64 | 295 | 2.6 | 7.0 | 0.00 | 0.00 | 0.00 | 100 | 905.4 |
| 20260902152700 | 64 | 297 | 1.7 | 6.1 | 0.00 | 0.00 | 0.00 | 100 | 905.8 |
| 20260902152557 | 64 | 297 | 1.7 | 5.2 | 0.00 | 0.00 | 0.00 | 100 | 906.0 |
| 20260902152450 | 64 | 276 | 2.6 | 5.2 | 0.00 | 0.00 | 0.00 | 100 | 905.8 |
| 20260902152242 | 63 | 259 | 3.5 | 5.2 | 0.00 | 0.00 | 0.00 | 100 | 905.5 |
| 20260902152034 | 64 | 273 | 2.6 | 6.1 | 0.00 | 0.00 | 0.00 | 100 | 905.8 |
| 20260902151825 | 65 | 278 | 2.6 | 8.7 | 0.00 | 0.00 | 0.00 | 100 | 906.0 |
| 20260902151627 | 64 | 281 | 2.6 | 8.7 | 0.00 | 0.00 | 0.00 | 100 | 905.7 |
| 20260902151617 | 65 | 281 | 2.6 | 8.7 | 0.00 | 0.00 | 0.00 | 100 | 905.7 |
| 20260902151513 | 65 | 276 | 2.6 | 8.7 | 0.00 | 0.00 | 0.00 | 100 | 905.7 |
| 20260902151407 | 65 | 286 | 1.7 | 5.2 | 0.00 | 0.00 | 0.00 | 100 | 905.7 |
| 20260902151159 | 65 | 266 | 3.5 | 8.7 | 0.00 | 0.00 | 0.00 | 100 | 906.0 |
| 20260902151001 | 65 | 250 | 3.5 | 8.7 | 0.00 | 0.00 | 0.00 | 100 | 905.9 |
| 20260902150752 | 65 | 273 | 3.5 | 7.8 | 0.00 | 0.00 | 0.00 | 100 | 906.2 |
| 20260902150544 | 64 | 296 | 2.6 | 6.1 | 0.00 | 0.00 | 0.00 | 100 | 906.1 |
| 20260902150440 | 64 | 297 | 2.6 | 6.1 | 0.00 | 0.00 | 0.00 | 100 | 905.7 |
| 20260902150345 | 64 | 296 | 1.7 | 6.1 | 0.00 | 0.00 | 0.00 | 100 | 905.7 |
| 20260902150334 | 65 | 296 | 1.7 | 6.1 | 0.00 | 0.00 | 0.00 | 100 | 905.9 |
| 20260902150125 | 65 | 301 | 1.7 | 6.1 | 0.00 | 0.00 | 0.00 | 100 | 905.9 |
| 20260902145917 | 64 | 317 | 2.6 | 6.1 | 0.00 | 0.00 | 0.00 | 100 | 905.8 |
| 20260902145708 | 65 | 276 | 2.6 | 6.1 | 0.00 | 0.00 | 0.00 | 100 | 906.1 |
| 20260902145459 | 64 | 256 | 3.5 | 6.1 | 0.00 | 0.00 | 0.00 | 100 | 906.0 |
| 20260902145356 | 65 | 268 | 3.5 | 9.6 | 0.00 | 0.00 | 0.00 | 100 | 906.0 |
| 20260902145311 | 65 | 284 | 3.5 | 11.3 | 0.00 | 0.00 | 0.00 | 100 | 906.0 |
| 20260902145300 | 65 | 284 | 3.5 | 11.3 | 0.00 | 0.00 | 0.00 | 100 | 906.4 |
| 20260902145051 | 65 | 301 | 2.6 | 11.3 | 0.00 | 0.00 | 0.00 | 100 | 906.4 |
| 20260902144843 | 66 | 317 | 1.7 | 5.2 | 0.00 | 0.00 | 0.00 | 100 | 906.9 |
| 20260902144634 | 65 | 282 | 2.6 | 8.7 | 0.00 | 0.00 | 0.00 | 100 | 906.8 |
| 20260902144426 | 64 | 282 | 3.5 | 7.8 | 0.00 | 0.00 | 0.00 | 100 | 906.3 |
| 20260902144322 | 64 | 289 | 4.3 | 10.4 | 0.00 | 0.00 | 0.00 | 100 | 906.1 |
| 20260902144216 | 64 | 296 | 4.3 | 10.4 | 0.00 | 0.00 | 0.00 | 100 | 906.2 |
| 20260902144007 | 65 | 296 | 3.5 | 10.4 | 0.00 | 0.00 | 0.00 | 100 | 906.6 |
| 20260902143810 | 64 | 295 | 2.6 | 5.2 | 0.00 | 0.00 | 0.00 | 100 | 906.7 |
| 20260902143759 | 64 | 295 | 2.6 | 5.2 | 0.00 | 0.00 | 0.00 | 100 | 906.5 |
| 20260902143601 | 64 | 298 | 2.6 | 5.2 | 0.00 | 0.00 | 0.00 | 100 | 906.6 |
| 20260902143353 | 64 | 323 | 2.6 | 7.8 | 0.00 | 0.00 | 0.00 | 100 | 906.7 |
| 20260902143249 | 64 | 322 | 2.6 | 7.8 | 0.00 | 0.00 | 0.00 | 100 | 906.5 |
| 20260902143143 | 64 | 322 | 2.6 | 7.8 | 0.00 | 0.00 | 0.00 | 100 | 906.8 |
| 20260902142934 | 64 | 298 | 1.7 | 6.1 | 0.00 | 0.00 | 0.00 | 100 | 907.0 |
| 20260902142737 | 64 | 255 | 1.7 | 4.3 | 0.00 | 0.00 | 0.00 | 100 | 907.2 |
| 20260902142726 | 63 | 255 | 1.7 | 4.3 | 0.00 | 0.00 | 0.00 | 100 | 907.0 |
| 20260902142530 | 63 | 244 | 2.6 | 5.2 | 0.00 | 0.00 | 0.00 | 100 | 906.8 |
| 20260902142517 | 63 | 244 | 2.6 | 5.2 | 0.00 | 0.00 | 0.00 | 100 | 906.6 |
| 20260902142309 | 62 | 263 | 3.5 | 6.1 | 0.00 | 0.00 | 0.00 | 100 | 906.4 |
| 20260902142205 | 62 | 269 | 3.5 | 7.8 | 0.00 | 0.00 | 0.00 | 100 | 905.7 |
| 20260902142059 | 63 | 279 | 3.5 | 7.8 | 0.00 | 0.00 | 0.00 | 100 | 906.1 |
| 20260902141917 | 63 | 297 | 1.7 | 5.2 | 0.00 | 0.00 | 0.00 | 100 | 907.4 |
| 20260902141901 | 63 | 284 | 2.6 | 6.1 | 0.00 | 0.00 | 0.00 | 100 | 907.3 |
| 20260902141653 | 63 | 297 | 1.7 | 5.2 | 0.00 | 0.00 | 0.00 | 100 | 907.4 |
| 20260902141455 | 63 | 329 | 2.6 | 5.2 | 0.00 | 0.00 | 0.00 | 100 | 907.3 |
| 20260902141444 | 62 | 329 | 2.6 | 5.2 | 0.00 | 0.00 | 0.00 | 100 | 907.2 |
| 20260902141235 | 62 | 343 | 3.5 | 7.8 | 0.00 | 0.00 | 0.00 | 100 | 906.1 |
| 20260902141132 | 63 | 341 | 4.3 | 8.7 | 0.00 | 0.00 | 0.00 | 100 | 906.0 |
| 20260902141026 | 63 | 344 | 4.3 | 8.7 | 0.00 | 0.00 | 0.00 | 100 | 906.0 |
| 20260902140817 | 63 | 353 | 3.5 | 8.7 | 0.00 | 0.00 | 0.00 | 100 | 906.2 |
| 20260902140609 | 63 | 337 | 3.5 | 8.7 | 0.00 | 0.00 | 0.00 | 100 | 906.8 |
| 20260902140400 | 64 | 328 | 2.6 | 8.7 | 0.00 | 0.00 | 0.00 | 100 | 907.1 |
| 20260902140213 | 63 | 330 | 1.7 | 7.0 | 0.00 | 0.00 | 0.00 | 100 | 907.4 |
| 20260902140202 | 63 | 330 | 1.7 | 7.0 | 0.00 | 0.00 | 0.00 | 100 | 907.8 |
| 20260902135951 | 62 | 343 | 1.7 | 5.2 | 0.00 | 0.00 | 0.00 | 100 | 907.6 |
| 20260902135742 | 62 | 355 | 1.7 | 5.2 | 0.00 | 0.00 | 0.00 | 100 | 906.7 |
| 20260902135534 | 62 | 353 | 1.7 | 3.5 | 0.00 | 0.00 | 0.00 | 100 | 906.8 |
| 20260902135325 | 62 | 331 | 1.7 | 5.2 | 0.00 | 0.00 | 0.00 | 100 | 906.6 |
| 20260902135117 | 62 | 329 | 2.6 | 7.8 | 0.00 | 0.00 | 0.00 | 100 | 906.3 |
| 20260902135013 | 62 | 338 | 3.5 | 7.8 | 0.00 | 0.00 | 0.00 | 100 | 906.3 |
| 20260902134907 | 62 | 338 | 2.6 | 7.8 | 0.00 | 0.00 | 0.00 | 100 | 906.4 |
| 20260902134710 | 62 | 335 | 2.6 | 4.3 | 0.00 | 0.00 | 0.00 | 100 | 906.4 |
| 20260902134659 | 62 | 335 | 2.6 | 4.3 | 0.00 | 0.00 | 0.00 | 100 | 906.5 |
| 20260902134501 | 62 | 332 | 2.6 | 5.2 | 0.00 | 0.00 | 0.00 | 100 | 906.3 |
| 20260902134252 | 62 | 346 | 2.6 | 5.2 | 0.00 | 0.00 | 0.00 | 100 | 906.2 |
| 20260902134044 | 62 | 353 | 3.5 | 7.0 | 0.00 | 0.00 | 0.00 | 100 | 906.3 |
| 20260902133940 | 62 | 353 | 3.5 | 7.0 | 0.00 | 0.00 | 0.00 | 100 | 906.2 |
| 20260902133830 | 62 | 354 | 3.5 | 7.8 | 0.00 | 0.00 | 0.00 | 100 | 906.4 |
| 20260902133632 | 62 | 342 | 3.5 | 7.8 | 0.00 | 0.00 | 0.00 | 100 | 906.4 |
| 20260902133621 | 63 | 342 | 3.5 | 7.8 | 0.00 | 0.00 | 0.00 | 100 | 906.3 |
| 20260902133413 | 63 | 350 | 3.5 | 9.6 | 0.00 | 0.00 | 0.00 | 100 | 906.4 |
| 20260902133214 | 63 | 346 | 4.3 | 9.6 | 0.00 | 0.00 | 0.00 | 100 | 906.3 |
| 20260902133006 | 64 | 344 | 4.3 | 7.8 | 0.00 | 0.00 | 0.00 | 100 | 906.8 |
| 20260902132903 | 64 | 349 | 3.5 | 7.8 | 0.00 | 0.00 | 0.00 | 100 | 907.1 |
| 20260902132756 | 62 | 347 | 3.5 | 7.0 | 0.00 | 0.00 | 0.00 | 100 | 907.7 |
| 20260902132548 | 62 | 333 | 3.5 | 7.0 | 0.00 | 0.00 | 0.00 | 100 | 907.2 |
| 20260902132350 | 62 | 307 | 3.5 | 9.6 | 0.00 | 0.00 | 0.00 | 100 | 907.1 |
| 20260902132339 | 62 | 307 | 3.5 | 9.6 | 0.00 | 0.00 | 0.00 | 100 | 906.9 |
| 20260902132130 | 62 | 297 | 4.3 | 9.6 | 0.00 | 0.00 | 0.00 | 100 | 906.7 |
| 20260902131922 | 61 | 299 | 3.5 | 7.8 | 0.00 | 0.00 | 0.00 | 100 | 906.6 |
| 20260902131819 | 61 | 303 | 3.5 | 8.7 | 0.00 | 0.00 | 0.00 | 100 | 906.6 |
| 20260902131712 | 61 | 307 | 3.5 | 8.7 | 0.00 | 0.00 | 0.00 | 100 | 906.7 |
| 20260902131504 | 62 | 298 | 5.2 | 8.7 | 0.00 | 0.00 | 0.00 | 100 | 906.4 |
| 20260902131306 | 61 | 297 | 5.2 | 9.6 | 0.00 | 0.00 | 0.00 | 100 | 906.4 |
| 20260902131107 | 61 | 296 | 4.3 | 7.0 | 0.00 | 0.00 | 0.00 | 100 | 906.5 |
| 20260902131057 | 62 | 296 | 4.3 | 7.0 | 0.00 | 0.00 | 0.00 | 100 | 906.7 |
| 20260902130849 | 62 | 283 | 2.6 | 7.0 | 0.00 | 0.00 | 0.00 | 100 | 906.9 |
| 20260902130745 | 62 | 274 | 2.6 | 5.2 | 0.00 | 0.00 | 0.00 | 100 | 907.0 |
| 20260902130639 | 62 | 272 | 2.6 | 5.2 | 0.00 | 0.00 | 0.00 | 100 | 907.0 |
| 20260902130430 | 61 | 278 | 2.6 | 5.2 | 0.00 | 0.00 | 0.00 | 100 | 906.8 |
| 20260902130221 | 61 | 270 | 2.6 | 5.2 | 0.00 | 0.00 | 0.00 | 100 | 906.6 |
| 20260902130013 | 61 | 260 | 3.5 | 7.0 | 0.00 | 0.00 | 0.00 | 100 | 906.4 |
| 20260902125817 | 61 | 266 | 3.5 | 7.0 | 0.00 | 0.00 | 0.00 | 100 | 906.3 |
| 20260902125804 | 61 | 266 | 3.5 | 7.0 | 0.00 | 0.00 | 0.00 | 100 | 906.4 |
| 20260902125701 | 61 | 272 | 3.5 | 7.0 | 0.00 | 0.00 | 0.00 | 100 | 906.4 |
| 20260902125605 | 61 | 274 | 3.5 | 7.0 | 0.00 | 0.00 | 0.00 | 100 | 906.4 |
| 20260902125357 | 62 | 293 | 3.5 | 7.0 | 0.00 | 0.00 | 0.00 | 100 | 906.5 |
| 20260902125148 | 61 | 298 | 3.5 | 7.0 | 0.00 | 0.00 | 0.00 | 100 | 906.5 |
| 20260902124939 | 62 | 283 | 3.5 | 7.0 | 0.00 | 0.00 | 0.00 | 100 | 906.6 |
| 20260902124805 | 61 | 252 | 3.5 | 7.0 | 0.00 | 0.00 | 0.00 | 100 | 906.7 |
| 20260902124731 | 61 | 252 | 3.5 | 7.0 | 0.00 | 0.00 | 0.00 | 100 | 906.7 |
| 20260902124628 | 61 | 249 | 4.3 | 7.0 | 0.00 | 0.00 | 0.00 | 100 | 906.6 |
| 20260902124533 | 61 | 251 | 3.5 | 6.1 | 0.00 | 0.00 | 0.00 | 100 | 906.6 |
| 20260902124521 | 61 | 251 | 3.5 | 6.1 | 0.00 | 0.00 | 0.00 | 100 | 906.8 |
| 20260902124313 | 61 | 248 | 3.5 | 7.8 | 0.00 | 0.00 | 0.00 | 100 | 906.8 |
| 20260902124104 | 61 | 244 | 3.5 | 7.8 | 0.00 | 0.00 | 0.00 | 100 | 906.6 |
| 20260902123906 | 61 | 243 | 4.3 | 7.8 | 0.00 | 0.00 | 0.00 | 100 | 906.8 |
| 20260902123658 | 61 | 241 | 4.3 | 7.0 | 0.00 | 0.00 | 0.00 | 100 | 906.6 |
| 20260902123555 | 62 | 243 | 4.3 | 7.0 | 0.00 | 0.00 | 0.00 | 100 | 906.7 |
| 20260902123448 | 61 | 243 | 5.2 | 7.0 | 0.00 | 0.00 | 0.00 | 100 | 906.8 |
| 20260902123251 | 61 | 243 | 5.2 | 10.4 | 0.00 | 0.00 | 0.00 | 100 | 906.6 |
| 20260902123240 | 62 | 243 | 5.2 | 10.4 | 0.00 | 0.00 | 0.00 | 100 | 906.7 |
| 20260902123031 | 62 | 244 | 5.2 | 10.4 | 0.00 | 0.00 | 0.00 | 100 | 906.7 |
| 20260902122822 | 62 | 248 | 5.2 | 8.7 | 0.00 | 0.00 | 0.00 | 100 | 906.9 |
| 20260902122614 | 61 | 247 | 6.1 | 10.4 | 0.00 | 0.00 | 0.00 | 100 | 906.8 |
| 20260902122511 | 61 | 249 | 7.0 | 11.3 | 0.00 | 0.00 | 0.00 | 100 | 906.6 |
| 20260902122404 | 61 | 251 | 7.0 | 11.3 | 0.00 | 0.00 | 0.00 | 100 | 906.5 |
| 20260902122218 | 62 | 255 | 7.8 | 11.3 | 0.00 | 0.00 | 0.00 | 100 | 906.5 |
| 20260902122207 | 62 | 255 | 7.8 | 11.3 | 0.00 | 0.00 | 0.00 | 100 | 906.4 |
| 20260902121958 | 62 | 254 | 7.8 | 14.8 | 0.00 | 0.00 | 0.00 | 100 | 906.3 |
| 20260902121749 | 62 | 251 | 7.0 | 14.8 | 0.00 | 0.00 | 0.00 | 100 | 906.1 |
| 20260902121541 | 62 | 251 | 7.0 | 12.2 | 0.00 | 0.00 | 0.00 | 100 | 906.0 |
| 20260902121438 | 62 | 253 | 7.0 | 10.4 | 0.00 | 0.00 | 0.00 | 100 | 906.0 |
| 20260902121331 | 63 | 252 | 6.1 | 10.4 | 0.00 | 0.00 | 0.00 | 100 | 905.9 |
| 20260902121123 | 63 | 243 | 7.0 | 11.3 | 0.00 | 0.00 | 0.00 | 100 | 906.0 |
| 20260902120914 | 63 | 236 | 7.8 | 12.2 | 0.00 | 0.00 | 0.00 | 100 | 905.9 |
| 20260902120716 | 64 | 234 | 7.8 | 12.2 | 0.00 | 0.00 | 0.00 | 100 | 906.1 |
| 20260902120705 | 64 | 234 | 7.8 | 12.2 | 0.00 | 0.00 | 0.00 | 100 | 906.7 |
| 20260902120507 | 64 | 239 | 7.0 | 12.2 | 0.00 | 0.00 | 0.00 | 100 | 906.7 |
| 20260902120404 | 63 | 252 | 7.0 | 11.3 | 0.00 | 0.00 | 0.00 | 100 | 906.4 |
| 20260902120258 | 63 | 280 | 6.1 | 11.3 | 0.00 | 0.00 | 0.00 | 100 | 907.2 |
| 20260902120049 | 63 | 272 | 7.8 | 14.8 | 0.00 | 0.00 | 0.00 | 100 | 907.1 |
| 20260902115841 | 62 | 251 | 8.7 | 17.4 | 0.00 | 0.00 | 0.00 | 100 | 906.2 |
| 20260902115631 | 63 | 254 | 10.4 | 17.4 | 0.00 | 0.00 | 0.00 | 100 | 905.5 |
| 20260902115434 | 64 | 256 | 7.8 | 14.8 | 0.00 | 0.00 | 0.00 | 100 | 905.9 |
| 20260902115423 | 64 | 256 | 7.8 | 14.8 | 0.00 | 0.00 | 0.00 | 100 | 906.8 |
| 20260902115320 | 64 | 266 | 7.8 | 14.8 | 0.00 | 0.00 | 0.00 | 100 | 906.8 |
| 20260902115213 | 64 | 274 | 7.0 | 15.6 | 0.00 | 0.00 | 0.00 | 100 | 907.0 |
| 20260902115005 | 64 | 286 | 7.0 | 15.6 | 0.00 | 0.00 | 0.00 | 100 | 906.9 |
| 20260902114807 | 64 | 281 | 6.1 | 14.8 | 0.00 | 0.00 | 0.00 | 100 | 907.3 |
| 20260902114558 | 63 | 270 | 7.8 | 14.8 | 0.00 | 0.00 | 0.00 | 100 | 906.9 |
| 20260902114401 | 64 | 271 | 7.0 | 14.8 | 0.00 | 0.00 | 0.00 | 100 | 907.2 |
| 20260902114350 | 64 | 271 | 7.0 | 14.8 | 0.00 | 0.00 | 0.00 | 100 | 907.1 |
| 20260902114247 | 63 | 269 | 7.0 | 14.8 | 0.00 | 0.00 | 0.00 | 100 | 907.2 |
| 20260902114140 | 63 | 270 | 7.8 | 12.2 | 0.00 | 0.00 | 0.00 | 100 | 907.2 |
| 20260902113932 | 63 | 247 | 9.6 | 19.1 | 0.00 | 0.00 | 0.00 | 100 | 907.1 |
| 20260902113724 | 63 | 249 | 10.4 | 19.1 | 0.00 | 0.00 | 0.00 | 100 | 906.6 |
| 20260902113514 | 62 | 254 | 8.7 | 16.5 | 0.00 | 0.00 | 0.00 | 100 | 907.0 |
| 20260902113306 | 62 | 245 | 9.6 | 16.5 | 0.00 | 0.00 | 0.00 | 100 | 906.6 |
| 20260902113203 | 62 | 244 | 8.7 | 16.5 | 0.00 | 0.00 | 0.00 | 100 | 906.7 |
| 20260902113118 | 62 | 246 | 7.8 | 16.5 | 0.00 | 0.00 | 0.00 | 100 | 906.7 |
| 20260902113107 | 63 | 246 | 7.8 | 16.5 | 0.00 | 0.00 | 0.00 | 100 | 907.3 |
| 20260902112859 | 63 | 243 | 7.8 | 14.8 | 0.00 | 0.00 | 0.00 | 100 | 907.2 |
| 20260902112650 | 62 | 243 | 9.6 | 16.5 | 0.00 | 0.00 | 0.00 | 100 | 906.8 |
| 20260902112441 | 63 | 243 | 8.7 | 16.5 | 0.00 | 0.00 | 0.00 | 100 | 907.1 |
| 20260902112233 | 62 | 240 | 7.8 | 16.5 | 0.00 | 0.00 | 0.00 | 100 | 907.3 |
| 20260902112130 | 62 | 242 | 7.8 | 16.5 | 0.00 | 0.00 | 0.00 | 100 | 907.2 |
| 20260902112023 | 62 | 245 | 8.7 | 15.6 | 0.00 | 0.00 | 0.00 | 100 | 907.3 |
| 20260902111815 | 62 | 247 | 8.7 | 15.6 | 0.00 | 0.00 | 0.00 | 100 | 907.3 |
| 20260902111618 | 63 | 247 | 8.7 | 14.8 | 0.00 | 0.00 | 0.00 | 100 | 907.3 |
| 20260902111606 | 62 | 247 | 8.7 | 14.8 | 0.00 | 0.00 | 0.00 | 100 | 907.4 |
| 20260902111407 | 62 | 244 | 8.7 | 14.8 | 0.00 | 0.00 | 0.00 | 100 | 907.5 |
| 20260902111159 | 62 | 240 | 8.7 | 14.8 | 0.00 | 0.00 | 0.00 | 100 | 907.7 |
| 20260902111056 | 62 | 242 | 8.7 | 15.6 | 0.00 | 0.00 | 0.00 | 100 | 908.0 |
| 20260902110949 | 62 | 243 | 9.6 | 15.6 | 0.00 | 0.00 | 0.00 | 100 | 907.8 |
| 20260902110741 | 62 | 244 | 10.4 | 15.6 | 0.00 | 0.00 | 0.00 | 100 | 907.9 |
| 20260902110545 | 62 | 246 | 10.4 | 15.6 | 0.00 | 0.00 | 0.00 | 100 | 908.0 |
| 20260902110533 | 61 | 246 | 10.4 | 15.6 | 0.00 | 0.00 | 0.00 | 100 | 907.9 |
| 20260902110324 | 60 | 248 | 11.3 | 16.5 | 0.00 | 0.00 | 0.00 | 100 | 908.0 |
| 20260902110115 | 60 | 253 | 11.3 | 16.5 | 0.00 | 0.00 | 0.00 | 100 | 907.2 |
| 20260902110012 | 60 | 254 | 10.4 | 16.5 | 0.00 | 0.00 | 0.00 | 100 | 906.9 |
| 20260902105906 | 61 | 254 | 9.6 | 16.5 | 0.00 | 0.00 | 0.00 | 100 | 907.1 |
| 20260902105708 | 60 | 249 | 9.6 | 16.5 | 0.00 | 0.00 | 0.00 | 100 | 907.8 |
| 20260902105459 | 60 | 246 | 10.4 | 16.5 | 0.00 | 0.00 | 0.00 | 100 | 906.8 |
| 20260902105258 | 60 | 252 | 8.7 | 13.9 | 0.00 | 0.00 | 0.00 | 100 | 906.7 |
| 20260902105245 | 60 | 252 | 8.7 | 13.9 | 0.00 | 0.00 | 0.00 | 100 | 906.8 |
| 20260902105036 | 60 | 256 | 8.7 | 13.0 | 0.00 | 0.00 | 0.00 | 100 | 906.6 |
| 20260902104933 | 60 | 256 | 7.8 | 13.0 | 0.00 | 0.00 | 0.00 | 100 | 906.7 |
| 20260902104827 | 60 | 257 | 7.8 | 13.0 | 0.00 | 0.00 | 0.00 | 100 | 906.6 |
| 20260902104618 | 60 | 260 | 7.8 | 15.6 | 0.00 | 0.00 | 0.00 | 100 | 906.4 |
| 20260902104420 | 61 | 257 | 8.7 | 17.4 | 0.00 | 0.00 | 0.00 | 100 | 906.2 |
| 20260902104212 | 61 | 257 | 8.7 | 17.4 | 0.00 | 0.00 | 0.00 | 100 | 906.2 |
| 20260902104014 | 61 | 255 | 7.8 | 15.6 | 0.00 | 0.00 | 0.00 | 100 | 906.4 |
| 20260902104003 | 62 | 255 | 7.8 | 15.6 | 0.00 | 0.00 | 0.00 | 100 | 906.6 |
| 20260902103900 | 62 | 253 | 8.7 | 15.6 | 0.00 | 0.00 | 0.00 | 100 | 906.6 |
| 20260902103753 | 62 | 251 | 8.7 | 15.6 | 0.00 | 0.00 | 0.00 | 100 | 907.3 |
| 20260902103545 | 61 | 251 | 10.4 | 15.6 | 0.00 | 0.00 | 0.00 | 100 | 906.7 |
| 20260902103337 | 61 | 248 | 10.4 | 15.6 | 0.00 | 0.00 | 0.00 | 100 | 906.9 |
| 20260902103128 | 62 | 246 | 10.4 | 15.6 | 0.00 | 0.00 | 0.00 | 100 | 907.1 |
| 20260902102919 | 61 | 247 | 9.6 | 15.6 | 0.00 | 0.00 | 0.00 | 100 | 907.1 |
| 20260902102816 | 62 | 249 | 8.7 | 14.8 | 0.00 | 0.00 | 0.00 | 100 | 907.3 |
| 20260902102734 | 62 | 253 | 8.7 | 14.8 | 0.00 | 0.00 | 0.00 | 100 | 907.3 |
| 20260902102720 | 61 | 253 | 8.7 | 14.8 | 0.00 | 0.00 | 0.00 | 100 | 907.4 |
| 20260902102512 | 61 | 258 | 7.8 | 13.9 | 0.00 | 0.00 | 0.00 | 100 | 907.4 |
| 20260902102307 | 61 | 256 | 7.8 | 13.9 | 0.00 | 0.00 | 0.00 | 100 | 908.0 |
| 20260902102054 | 61 | 259 | 7.0 | 14.8 | 0.00 | 0.00 | 0.00 | 100 | 908.0 |
| 20260902101845 | 61 | 250 | 6.1 | 11.3 | 0.00 | 0.00 | 0.00 | 100 | 909.0 |
| 20260902101742 | 61 | 246 | 7.0 | 11.3 | 0.00 | 0.00 | 0.00 | 100 | 908.8 |
| 20260902101636 | 60 | 245 | 7.0 | 11.3 | 0.00 | 0.00 | 0.00 | 100 | 908.8 |
| 20260902101440 | 59 | 248 | 7.0 | 11.3 | 0.00 | 0.00 | 0.00 | 100 | 908.9 |
| 20260902101427 | 59 | 248 | 7.0 | 11.3 | 0.00 | 0.00 | 0.00 | 100 | 908.7 |
| 20260902101219 | 58 | 245 | 7.8 | 12.2 | 0.00 | 0.00 | 0.00 | 100 | 908.4 |
| 20260902101021 | 58 | 246 | 7.8 | 12.2 | 0.00 | 0.00 | 0.00 | 100 | 907.2 |
| 20260902100812 | 58 | 248 | 7.0 | 12.2 | 0.00 | 0.00 | 0.00 | 100 | 907.2 |
| 20260902100709 | 58 | 247 | 6.1 | 11.3 | 0.00 | 0.00 | 0.00 | 100 | 907.2 |
| 20260902100602 | 58 | 246 | 6.1 | 11.3 | 0.00 | 0.00 | 0.00 | 100 | 907.2 |
| 20260902100354 | 58 | 250 | 6.1 | 9.6 | 0.00 | 0.00 | 0.00 | 100 | 907.1 |
| 20260902100146 | 58 | 249 | 6.1 | 11.3 | 0.00 | 0.00 | 0.00 | 100 | 907.1 |
| 20260902095937 | 59 | 253 | 5.2 | 8.7 | 0.00 | 0.00 | 0.00 | 100 | 907.1 |
| 20260902095728 | 59 | 274 | 6.1 | 13.0 | 0.00 | 0.00 | 0.00 | 100 | 907.1 |
| 20260902095625 | 59 | 288 | 6.1 | 13.0 | 0.00 | 0.00 | 0.00 | 100 | 907.0 |
| 20260902095519 | 59 | 293 | 6.1 | 13.0 | 0.00 | 0.00 | 0.00 | 100 | 906.8 |
| 20260902095321 | 59 | 289 | 4.3 | 9.6 | 0.00 | 0.00 | 0.00 | 100 | 906.9 |
| 20260902095124 | 59 | 290 | 5.2 | 10.4 | 0.00 | 0.00 | 0.00 | 100 | 907.1 |
| 20260902095112 | 59 | 290 | 5.2 | 10.4 | 0.00 | 0.00 | 0.00 | 100 | 906.9 |
| 20260902094915 | 59 | 300 | 5.2 | 9.6 | 0.00 | 0.00 | 0.00 | 100 | 906.7 |
| 20260902094904 | 59 | 300 | 5.2 | 9.6 | 0.00 | 0.00 | 0.00 | 100 | 906.9 |
| 20260902094655 | 59 | 301 | 4.3 | 9.6 | 0.00 | 0.00 | 0.00 | 100 | 907.2 |
| 20260902094552 | 59 | 300 | 5.2 | 11.3 | 0.00 | 0.00 | 0.00 | 100 | 907.1 |
| 20260902094445 | 59 | 296 | 6.1 | 11.3 | 0.00 | 0.00 | 0.00 | 100 | 906.9 |
| 20260902094237 | 59 | 295 | 7.0 | 13.9 | 0.00 | 0.00 | 0.00 | 100 | 907.2 |
| 20260902094029 | 59 | 280 | 7.0 | 13.9 | 0.00 | 0.00 | 0.00 | 100 | 907.0 |
| 20260902093820 | 60 | 238 | 6.1 | 13.0 | 0.00 | 0.00 | 0.00 | 100 | 907.0 |
| 20260902093622 | 60 | 225 | 5.2 | 13.0 | 0.00 | 0.00 | 0.00 | 100 | 907.6 |
| 20260902093519 | 60 | 212 | 6.1 | 13.9 | 0.00 | 0.00 | 0.00 | 100 | 907.8 |
| 20260902093412 | 60 | 226 | 6.1 | 13.9 | 0.00 | 0.00 | 0.00 | 100 | 907.2 |
| 20260902093204 | 60 | 243 | 7.0 | 13.9 | 0.00 | 0.00 | 0.00 | 100 | 907.2 |
| 20260902092955 | 60 | 238 | 7.0 | 13.9 | 0.00 | 0.00 | 0.00 | 100 | 907.2 |
| 20260902092747 | 60 | 225 | 7.0 | 13.0 | 0.00 | 0.00 | 0.00 | 100 | 907.2 |
| 20260902092538 | 60 | 232 | 7.0 | 13.0 | 0.00 | 0.00 | 0.00 | 100 | 906.8 |
| 20260902092437 | 60 | 231 | 7.0 | 13.0 | 0.00 | 0.00 | 0.00 | 100 | 907.7 |
| 20260902092338 | 60 | 236 | 6.1 | 12.2 | 0.00 | 0.00 | 0.00 | 100 | 907.7 |
| 20260902092327 | 60 | 236 | 6.1 | 12.2 | 0.00 | 0.00 | 0.00 | 100 | 908.0 |
| 20260902092129 | 60 | 228 | 6.1 | 12.2 | 0.00 | 0.00 | 0.00 | 100 | 907.9 |
| 20260902091921 | 60 | 239 | 7.8 | 12.2 | 0.00 | 0.00 | 0.00 | 100 | 907.7 |
| 20260902091712 | 60 | 239 | 7.0 | 12.2 | 0.00 | 0.00 | 0.00 | 100 | 907.7 |
| 20260902091503 | 59 | 225 | 7.0 | 13.9 | 0.00 | 0.00 | 0.00 | 100 | 907.8 |
| 20260902091400 | 59 | 231 | 7.0 | 13.9 | 0.00 | 0.00 | 0.00 | 100 | 907.8 |
| 20260902091254 | 59 | 238 | 7.8 | 13.9 | 0.00 | 0.00 | 0.00 | 100 | 907.6 |
| 20260902091057 | 59 | 235 | 8.7 | 14.8 | 0.00 | 0.00 | 0.00 | 100 | 907.7 |
| 20260902091045 | 59 | 235 | 8.7 | 14.8 | 0.00 | 0.00 | 0.00 | 100 | 907.4 |
| 20260902090837 | 60 | 240 | 8.7 | 13.9 | 0.00 | 0.00 | 0.00 | 100 | 907.5 |
| 20260902090628 | 60 | 247 | 7.8 | 13.9 | 0.00 | 0.00 | 0.00 | 100 | 907.8 |
| 20260902090430 | 59 | 246 | 9.6 | 14.8 | 0.00 | 0.00 | 0.00 | 100 | 907.7 |
| 20260902090327 | 59 | 246 | 9.6 | 14.8 | 0.00 | 0.00 | 0.00 | 100 | 907.6 |
| 20260902090220 | 59 | 245 | 9.6 | 14.8 | 0.00 | 0.00 | 0.00 | 100 | 907.6 |
| 20260902090023 | 59 | 242 | 9.6 | 15.6 | 0.00 | 0.00 | 0.00 | 100 | 907.8 |
| 20260902090012 | 60 | 242 | 9.6 | 15.6 | 0.00 | 0.00 | 0.00 | 100 | 907.9 |
| 20260902085803 | 59 | 233 | 10.4 | 14.8 | 0.00 | 0.00 | 0.00 | 100 | 907.7 |
| 20260902085554 | 59 | 233 | 10.4 | 15.6 | 0.00 | 0.00 | 0.00 | 100 | 907.5 |
| 20260902085346 | 59 | 235 | 10.4 | 15.6 | 0.00 | 0.00 | 0.00 | 100 | 907.2 |
| 20260902085243 | 59 | 235 | 10.4 | 15.6 | 0.00 | 0.00 | 0.00 | 100 | 907.3 |
| 20260902085136 | 59 | 240 | 9.6 | 15.6 | 0.00 | 0.00 | 0.00 | 100 | 907.2 |
| 20260902084928 | 58 | 243 | 8.7 | 13.9 | 0.00 | 0.00 | 0.00 | 100 | 906.8 |
| 20260902084742 | 59 | 237 | 8.7 | 13.9 | 0.00 | 0.00 | 0.00 | 100 | 907.0 |
| 20260902084730 | 59 | 237 | 8.7 | 13.9 | 0.00 | 0.00 | 0.00 | 100 | 907.4 |
| 20260902084521 | 59 | 238 | 7.8 | 14.8 | 0.00 | 0.00 | 0.00 | 100 | 907.8 |
| 20260902084313 | 59 | 248 | 7.0 | 14.8 | 0.00 | 0.00 | 0.00 | 100 | 907.7 |
| 20260902084210 | 59 | 250 | 7.0 | 14.8 | 0.00 | 0.00 | 0.00 | 100 | 907.6 |
| 20260902084103 | 59 | 249 | 7.0 | 13.9 | 0.00 | 0.00 | 0.00 | 100 | 907.5 |
| 20260902083855 | 59 | 240 | 7.8 | 13.9 | 0.00 | 0.00 | 0.00 | 100 | 907.4 |
| 20260902083646 | 59 | 238 | 7.8 | 13.9 | 0.00 | 0.00 | 0.00 | 100 | 907.6 |
| 20260902083437 | 58 | 240 | 7.0 | 11.3 | 0.00 | 0.00 | 0.00 | 100 | 907.6 |
| 20260902083241 | 58 | 238 | 6.1 | 13.0 | 0.00 | 0.00 | 0.00 | 100 | 907.5 |
| 20260902083229 | 59 | 238 | 6.1 | 13.0 | 0.00 | 0.00 | 0.00 | 100 | 907.7 |
| 20260902083126 | 59 | 232 | 7.0 | 13.0 | 0.00 | 0.00 | 0.00 | 100 | 907.7 |
| 20260902083030 | 59 | 235 | 7.0 | 13.0 | 0.00 | 0.00 | 0.00 | 100 | 907.6 |
| 20260902082821 | 59 | 241 | 7.0 | 11.3 | 0.00 | 0.00 | 0.00 | 100 | 907.6 |
| 20260902082612 | 59 | 238 | 7.0 | 12.2 | 0.00 | 0.00 | 0.00 | 100 | 907.8 |
| 20260902082404 | 58 | 238 | 7.0 | 12.2 | 0.00 | 0.00 | 0.00 | 100 | 907.7 |
| 20260902082227 | 59 | 234 | 7.0 | 10.4 | 0.00 | 0.00 | 0.00 | 100 | 907.9 |
| 20260902082159 | 59 | 234 | 7.0 | 10.4 | 0.00 | 0.00 | 0.00 | 100 | |
| 20260902082052 | 59 | 237 | 7.0 | 10.4 | 0.00 | 0.00 | 0.00 | 100 | |
| 20260902081842 | 58 | 239 | 7.8 | 11.3 | 0.00 | 0.00 | 0.00 | 100 | 907.5 |
| 20260902081623 | 58 | 228 | 7.8 | 11.3 | 0.00 | 0.00 | 0.00 | 100 | |
| 20260902081511 | 58 | 227 | 7.0 | 11.3 | 0.00 | 0.00 | 0.00 | 100 | |
| 20260902081005 | 58 | 225 | 7.0 | 11.3 | 0.00 | 0.00 | 0.00 | 100 | |
| 20260902080538 | 58 | 238 | 7.0 | 9.6 | 0.00 | 0.00 | 0.00 | 100 | 907.5 |
| 20260902080020 | 58 | 222 | 7.0 | 11.3 | 0.00 | 0.00 | 0.00 | 100 | 907.5 |
| 20260902075502 | 58 | 222 | 6.1 | 10.4 | 0.00 | 0.00 | 0.00 | 100 | 907.5 |
| 20260902074941 | 58 | 225 | 6.1 | 9.6 | 0.00 | 0.00 | 0.00 | 100 | 907.3 |
| 20260902074419 | 58 | 226 | 7.0 | 10.4 | 0.00 | 0.00 | 0.00 | 100 | 907.3 |
| 20260902073858 | 57 | 234 | 7.8 | 12.2 | 0.00 | 0.00 | 0.00 | 100 | 907.0 |
| 20260902073345 | 58 | 231 | 7.0 | 10.4 | 0.00 | 0.00 | 0.00 | 100 | 907.1 |
| 20260902072824 | 57 | 234 | 6.1 | 9.6 | 0.00 | 0.00 | 0.00 | 100 | 907.3 |
| 20260902072301 | 57 | 226 | 7.0 | 10.4 | 0.00 | 0.00 | 0.00 | 100 | 907.2 |
| 20260902071751 | 56 | 211 | 5.2 | 7.8 | 0.00 | 0.00 | 0.00 | 100 | 907.1 |
| 20260902071228 | 57 | 211 | 5.2 | 9.6 | 0.00 | 0.00 | 0.00 | 100 | 906.9 |
| 20260902070707 | 57 | 221 | 5.2 | 8.7 | 0.00 | 0.00 | 0.00 | 100 | 907.1 |
| 20260902070154 | 57 | 230 | 5.2 | 8.7 | 0.00 | 0.00 | 0.00 | 100 | 907.4 |
| 20260902065634 | 57 | 226 | 5.2 | 8.7 | 0.00 | 0.00 | 0.00 | 100 | 907.4 |
| 20260902065111 | 56 | 225 | 6.1 | 8.7 | 0.00 | 0.00 | 0.00 | 100 | 907.2 |
| 20260902064600 | 56 | 224 | 6.1 | 8.7 | 0.00 | 0.00 | 0.00 | 100 | 906.9 |
| 20260902064037 | 56 | 224 | 5.2 | 7.8 | 0.00 | 0.00 | 0.00 | 100 | 906.9 |
| 20260902063631 | 56 | 225 | 4.3 | 7.0 | 0.00 | 0.00 | 0.00 | 100 | 907.1 |
| 20260902063607 | 56 | 224 | 4.3 | 7.0 | 0.00 | 0.00 | 0.00 | 100 | |
| 20260902063355 | 56 | 226 | 4.3 | 7.0 | 0.00 | 0.00 | 0.00 | 100 | |
| 20260902063252 | 56 | 227 | 5.2 | 7.0 | 0.00 | 0.00 | 0.00 | 100 | |
| 20260902063128 | 56 | 226 | 4.3 | 7.0 | 0.00 | 0.00 | 0.00 | 100 | |
| 20260902063024 | 56 | 226 | 5.2 | 7.0 | 0.00 | 0.00 | 0.00 | 100 | |
| 20260902062718 | 56 | 220 | 5.2 | 7.0 | 0.00 | 0.00 | 0.00 | 100 | 907.3 |
| 20260902062521 | 56 | 216 | 4.3 | 7.0 | 0.00 | 0.00 | 0.00 | 100 | 907.3 |
| 20260902062416 | 55 | 211 | 4.3 | 7.0 | 0.00 | 0.00 | 0.00 | 100 | 907.3 |
| 20260902062311 | 55 | 218 | 4.3 | 7.8 | 0.00 | 0.00 | 0.00 | 100 | 907.2 |
| 20260902062217 | 55 | 221 | 4.3 | 7.8 | 0.00 | 0.00 | 0.00 | 100 | 907.1 |
| 20260902062103 | 55 | 226 | 5.2 | 7.8 | 0.00 | 0.00 | 0.00 | 100 | 907.0 |
| 20260902062010 | 55 | 220 | 5.2 | 8.7 | 0.00 | 0.00 | 0.00 | 100 | 906.9 |
| 20260902061854 | 55 | 210 | 5.2 | 8.7 | 0.00 | 0.00 | 0.00 | 100 | 906.8 |
| 20260902061759 | 55 | 209 | 5.2 | 8.7 | 0.00 | 0.00 | 0.00 | 100 | 906.8 |
| 20260902061645 | 55 | 207 | 5.2 | 8.7 | 0.00 | 0.00 | 0.00 | 100 | 906.7 |
| 20260902061551 | 55 | 209 | 5.2 | 9.6 | 0.00 | 0.00 | 0.00 | 100 | 906.7 |
| 20260902061437 | 55 | 207 | 6.1 | 9.6 | 0.00 | 0.00 | 0.00 | 100 | 906.5 |
| 20260902061343 | 55 | 209 | 6.1 | 9.6 | 0.00 | 0.00 | 0.00 | 100 | 906.3 |
| 20260902061232 | 55 | 207 | 6.1 | 9.6 | 0.00 | 0.00 | 0.00 | 100 | 906.0 |
| 20260902061138 | 55 | 208 | 7.0 | 10.4 | 0.00 | 0.00 | 0.00 | 100 | 906.3 |
| 20260902061024 | 55 | 207 | 6.1 | 10.4 | 0.00 | 0.00 | 0.00 | 100 | 906.4 |
| 20260902060929 | 55 | 206 | 7.0 | 10.4 | 0.00 | 0.00 | 0.00 | 100 | 907.1 |
| 20260902060815 | 55 | 208 | 7.0 | 10.4 | 0.00 | 0.00 | 0.00 | 100 | 911.7 |
| 20260902060722 | 55 | 209 | 7.0 | 10.4 | 0.00 | 0.00 | 0.00 | 100 | 906.3 |
| 20260902060606 | 55 | 210 | 7.0 | 11.3 | 0.00 | 0.00 | 0.00 | 100 | 906.2 |
| 20260902060512 | 55 | 208 | 7.0 | 11.3 | 0.00 | 0.00 | 0.00 | 100 | 906.2 |
| 20260902060358 | 55 | 209 | 7.0 | 11.3 | 0.00 | 0.00 | 0.00 | 100 | 906.2 |
| 20260902060253 | 55 | 208 | 7.0 | 11.3 | 0.00 | 0.00 | 0.00 | 100 | 906.2 |
| 20260902060148 | 55 | 208 | 7.0 | 10.4 | 0.00 | 0.00 | 0.00 | 100 | 906.5 |
| 20260902060054 | 54 | 208 | 7.0 | 12.2 | 0.00 | 0.00 | 0.00 | 100 | 907.1 |
| 20260902055940 | 54 | 207 | 7.0 | 12.2 | 0.00 | 0.00 | 0.00 | 100 | 911.7 |
| 20260902055846 | 54 | 208 | 7.0 | 12.2 | 0.00 | 0.00 | 0.00 | 100 | 906.3 |
| 20260902055731 | 54 | 207 | 7.0 | 12.2 | 0.00 | 0.00 | 0.00 | 100 | 906.1 |
| 20260902055648 | 54 | 206 | 7.0 | 12.2 | 0.00 | 0.00 | 0.00 | 100 | 905.9 |
| 20260902055533 | 54 | 205 | 6.1 | 9.6 | 0.00 | 0.00 | 0.00 | 100 | 905.7 |
| 20260902055439 | 54 | 205 | 7.0 | 9.6 | 0.00 | 0.00 | 0.00 | 100 | 905.7 |
| 20260902055325 | 54 | 205 | 7.0 | 9.6 | 0.00 | 0.00 | 0.00 | 100 | 906.0 |
| 20260902055230 | 54 | 204 | 7.0 | 9.6 | 0.00 | 0.00 | 0.00 | 100 | 906.0 |
| 20260902055220 | 54 | 204 | 7.0 | 9.6 | 0.00 | 0.00 | 0.00 | 100 | 908.6 |
| 20260902055115 | 54 | 203 | 7.0 | 10.4 | 0.00 | 0.00 | 0.00 | 100 | 908.6 |
| 20260902055021 | 54 | 203 | 7.0 | 10.4 | 0.00 | 0.00 | 0.00 | 100 | 910.7 |
| 20260902054907 | 54 | 204 | 7.0 | 12.2 | 0.00 | 0.00 | 0.00 | 100 | 905.8 |
| 20260902054813 | 54 | 207 | 7.0 | 12.2 | 0.00 | 0.00 | 0.00 | 100 | 906.2 |
| 20260902054658 | 54 | 208 | 7.0 | 12.2 | 0.00 | 0.00 | 0.00 | 100 | 906.5 |
| 20260902054604 | 54 | 210 | 7.0 | 12.2 | 0.00 | 0.00 | 0.00 | 100 | 907.5 |
| 20260902054449 | 54 | 212 | 7.8 | 12.2 | 0.00 | 0.00 | 0.00 | 100 | 909.0 |
| 20260902054400 | 54 | 216 | 7.8 | 12.2 | 0.00 | 0.00 | 0.00 | 100 | 905.8 |
| 20260902054241 | 54 | 219 | 8.7 | 12.2 | 0.00 | 0.00 | 0.00 | 100 | 905.8 |
| 20260902054136 | 55 | 218 | 7.8 | 11.3 | 0.00 | 0.00 | 0.00 | 100 | 905.9 |
| 20260902054040 | 54 | 220 | 7.8 | 12.2 | 0.00 | 0.00 | 0.00 | 100 | 907.1 |
| 20260902053947 | 54 | 218 | 7.8 | 12.2 | 0.00 | 0.00 | 0.00 | 100 | 907.1 |
| 20260902053832 | 54 | 215 | 7.0 | 12.2 | 0.00 | 0.00 | 0.00 | 100 | 909.2 |
| 20260902053738 | 55 | 212 | 7.0 | 12.2 | 0.00 | 0.00 | 0.00 | 100 | 911.3 |
| 20260902053623 | 55 | 210 | 6.1 | 9.6 | 0.00 | 0.00 | 0.00 | 100 | 906.7 |
| 20260902053529 | 55 | 213 | 6.1 | 9.6 | 0.00 | 0.00 | 0.00 | 100 | 906.8 |
| 20260902053414 | 55 | 212 | 6.1 | 9.6 | 0.00 | 0.00 | 0.00 | 100 | 906.6 |
| 20260902053321 | 55 | 210 | 6.1 | 8.7 | 0.00 | 0.00 | 0.00 | 100 | 906.6 |
| 20260902053206 | 55 | 208 | 6.1 | 7.8 | 0.00 | 0.00 | 0.00 | 100 | 906.5 |
| 20260902053101 | 55 | 206 | 5.2 | 7.0 | 0.00 | 0.00 | 0.00 | 100 | 906.6 |
| 20260902052956 | 55 | 204 | 5.2 | 7.0 | 0.00 | 0.00 | 0.00 | 100 | 906.7 |
| 20260902052903 | 55 | 205 | 5.2 | 7.0 | 0.00 | 0.00 | 0.00 | 100 | 906.6 |
| 20260902052748 | 55 | 204 | 5.2 | 7.0 | 0.00 | 0.00 | 0.00 | 100 | 906.6 |
| 20260902052655 | 55 | 203 | 5.2 | 6.1 | 0.00 | 0.00 | 0.00 | 100 | 906.6 |
| 20260902052539 | 55 | 200 | 5.2 | 7.0 | 0.00 | 0.00 | 0.00 | 100 | 906.3 |
| 20260902052456 | 55 | 200 | 5.2 | 7.8 | 0.00 | 0.00 | 0.00 | 100 | 906.3 |
| 20260902052341 | 55 | 199 | 5.2 | 7.8 | 0.00 | 0.00 | 0.00 | 100 | 906.5 |
| 20260902052247 | 55 | 198 | 5.2 | 7.8 | 0.00 | 0.00 | 0.00 | 100 | 906.9 |
| 20260902052133 | 55 | 199 | 5.2 | 7.8 | 0.00 | 0.00 | 0.00 | 100 | 908.0 |
| 20260902052028 | 55 | 197 | 5.2 | 7.0 | 0.00 | 0.00 | 0.00 | 100 | 909.0 |
| 20260902051923 | 55 | 197 | 5.2 | 7.0 | 0.00 | 0.00 | 0.00 | 100 | 906.8 |
| 20260902051829 | 55 | 198 | 5.2 | 7.8 | 0.00 | 0.00 | 0.00 | 100 | 906.9 |
| 20260902051715 | 55 | 197 | 5.2 | 7.8 | 0.00 | 0.00 | 0.00 | 100 | 906.8 |
| 20260902051621 | 55 | 204 | 5.2 | 7.8 | 0.00 | 0.00 | 0.00 | 100 | 906.8 |
| 20260902051506 | 55 | 205 | 5.2 | 7.0 | 0.00 | 0.00 | 0.00 | 100 | 906.7 |
| 20260902051412 | 55 | 205 | 5.2 | 7.0 | 0.00 | 0.00 | 0.00 | 100 | 906.7 |
| 20260902051257 | 55 | 204 | 5.2 | 7.0 | 0.00 | 0.00 | 0.00 | 100 | 906.7 |
| 20260902051204 | 55 | 202 | 5.2 | 7.0 | 0.00 | 0.00 | 0.00 | 100 | 906.6 |
| 20260902051049 | 55 | 197 | 4.3 | 6.1 | 0.00 | 0.00 | 0.00 | 100 | 906.7 |
| 20260902050944 | 55 | 198 | 4.3 | 6.1 | 0.00 | 0.00 | 0.00 | 100 | 906.7 |
| 20260902050839 | 55 | 198 | 4.3 | 6.1 | 0.00 | 0.00 | 0.00 | 100 | 906.6 |
| 20260902050756 | 55 | 197 | 4.3 | 5.2 | 0.00 | 0.00 | 0.00 | 100 | 906.6 |
| 20260902050642 | 55 | 196 | 4.3 | 5.2 | 0.00 | 0.00 | 0.00 | 100 | 906.5 |
| 20260902050548 | 55 | 197 | 4.3 | 5.2 | 0.00 | 0.00 | 0.00 | 100 | 906.4 |
| 20260902050433 | 55 | 197 | 4.3 | 5.2 | 0.00 | 0.00 | 0.00 | 100 | 906.3 |
| 20260902050338 | 55 | 198 | 4.3 | 5.2 | 0.00 | 0.00 | 0.00 | 100 | 906.2 |
| 20260902050224 | 55 | 198 | 4.3 | 5.2 | 0.00 | 0.00 | 0.00 | 100 | 906.1 |
| 20260902050129 | 55 | 199 | 4.3 | 4.3 | 0.00 | 0.00 | 0.00 | 100 | 906.1 |
| 20260902050015 | 55 | 200 | 4.3 | 4.3 | 0.00 | 0.00 | 0.00 | 100 | 906.1 |
| 20260902045911 | 55 | 201 | 3.5 | 4.3 | 0.00 | 0.00 | 0.00 | 100 | 906.1 |
| 20260902045806 | 55 | 202 | 3.5 | 4.3 | 0.00 | 0.00 | 0.00 | 100 | 906.8 |
| 20260902045712 | 55 | 202 | 3.5 | 4.3 | 0.00 | 0.00 | 0.00 | 100 | 907.8 |
| 20260902045558 | 55 | 203 | 3.5 | 4.3 | 0.00 | 0.00 | 0.00 | 100 | 910.0 |
| 20260902045504 | 55 | 205 | 3.5 | 4.3 | 0.00 | 0.00 | 0.00 | 100 | 910.0 |
| 20260902045349 | 55 | 205 | 3.5 | 4.3 | 0.00 | 0.00 | 0.00 | 100 | 906.8 |
| 20260902045255 | 55 | 205 | 3.5 | 3.5 | 0.00 | 0.00 | 0.00 | 100 | 906.8 |
| 20260902045140 | 55 | 203 | 3.5 | 3.5 | 0.00 | 0.00 | 0.00 | 100 | 906.8 |
| 20260902045057 | 55 | 203 | 2.6 | 3.5 | 0.00 | 0.00 | 0.00 | 100 | 906.8 |
| 20260902044942 | 55 | 199 | 2.6 | 3.5 | 0.00 | 0.00 | 0.00 | 100 | 906.7 |
| 20260902044837 | 55 | 194 | 2.6 | 3.5 | 0.00 | 0.00 | 0.00 | 100 | 906.7 |
| 20260902044732 | 55 | 192 | 2.6 | 3.5 | 0.00 | 0.00 | 0.00 | 100 | 906.6 |
| 20260902044639 | 55 | 189 | 2.6 | 2.6 | 0.00 | 0.00 | 0.00 | 100 | 906.7 |
| 20260902044524 | 55 | 188 | 2.6 | 2.6 | 0.00 | 0.00 | 0.00 | 100 | 906.6 |
| 20260902044430 | 55 | 187 | 2.6 | 2.6 | 0.00 | 0.00 | 0.00 | 100 | 906.5 |
| 20260902044315 | 55 | 186 | 2.6 | 2.6 | 0.00 | 0.00 | 0.00 | 100 | 906.4 |
| 20260902044221 | 55 | 185 | 2.6 | 2.6 | 0.00 | 0.00 | 0.00 | 100 | 906.3 |
| 20260902044106 | 55 | 185 | 1.7 | 2.6 | 0.00 | 0.00 | 0.00 | 100 | 906.2 |
| 20260902044012 | 55 | 185 | 1.7 | 2.6 | 0.00 | 0.00 | 0.00 | 100 | 906.2 |
| 20260902043857 | 55 | 185 | 1.7 | 2.6 | 0.00 | 0.00 | 0.00 | 100 | 906.3 |
| 20260902043753 | 55 | 183 | 1.7 | 2.6 | 0.00 | 0.00 | 0.00 | 100 | 906.1 |
| 20260902043648 | 55 | 174 | 1.7 | 2.6 | 0.00 | 0.00 | 0.00 | 100 | 906.1 |
| 20260902043555 | 55 | 165 | 1.7 | 3.5 | 0.00 | 0.00 | 0.00 | 100 | 906.1 |
| 20260902043439 | 55 | 158 | 2.6 | 3.5 | 0.00 | 0.00 | 0.00 | 100 | 906.0 |
| 20260902043357 | 55 | 155 | 2.6 | 3.5 | 0.00 | 0.00 | 0.00 | 100 | 905.8 |
| 20260902043242 | 54 | 155 | 2.6 | 3.5 | 0.00 | 0.00 | 0.00 | 100 | 905.8 |
| 20260902043147 | 54 | 159 | 2.6 | 3.5 | 0.00 | 0.00 | 0.00 | 100 | 905.8 |
| 20260902043033 | 54 | 161 | 2.6 | 3.5 | 0.00 | 0.00 | 0.00 | 100 | 906.5 |
| 20260902042939 | 54 | 163 | 2.6 | 3.5 | 0.00 | 0.00 | 0.00 | 100 | 907.6 |
| 20260902042824 | 54 | 165 | 2.6 | 3.5 | 0.00 | 0.00 | 0.00 | 100 | 909.9 |
| 20260902042720 | 54 | 169 | 2.6 | 3.5 | 0.00 | 0.00 | 0.00 | 100 | 905.8 |
| 20260902042614 | 54 | 178 | 2.6 | 3.5 | 0.00 | 0.00 | 0.00 | 100 | 905.8 |
| 20260902042521 | 54 | 182 | 3.5 | 3.5 | 0.00 | 0.00 | 0.00 | 100 | 905.8 |
| 20260902042406 | 54 | 183 | 3.5 | 3.5 | 0.00 | 0.00 | 0.00 | 100 | 906.0 |
| 20260902042315 | 54 | 183 | 3.5 | 3.5 | 0.00 | 0.00 | 0.00 | 100 | 906.0 |
| 20260902042158 | 54 | 183 | 3.5 | 3.5 | 0.00 | 0.00 | 0.00 | 100 | 906.2 |
| 20260902042104 | 54 | 184 | 3.5 | 3.5 | 0.00 | 0.00 | 0.00 | 100 | 907.2 |
| 20260902041949 | 54 | 184 | 3.5 | 3.5 | 0.00 | 0.00 | 0.00 | 100 | 909.0 |
| 20260902041855 | 54 | 185 | 3.5 | 3.5 | 0.00 | 0.00 | 0.00 | 100 | 905.7 |
| 20260902041740 | 54 | 185 | 3.5 | 3.5 | 0.00 | 0.00 | 0.00 | 100 | 905.6 |
| 20260902041646 | 54 | 185 | 3.5 | 4.3 | 0.00 | 0.00 | 0.00 | 100 | 905.6 |
| 20260902041541 | 54 | 186 | 3.5 | 4.3 | 0.00 | 0.00 | 0.00 | 100 | 905.5 |
| 20260902041447 | 54 | 185 | 3.5 | 4.3 | 0.00 | 0.00 | 0.00 | 100 | 905.3 |
| 20260902041333 | 54 | 185 | 3.5 | 4.3 | 0.00 | 0.00 | 0.00 | 100 | 905.5 |
| 20260902041239 | 54 | 185 | 3.5 | 4.3 | 0.00 | 0.00 | 0.00 | 100 | 905.5 |
| 20260902041124 | 53 | 185 | 3.5 | 4.3 | 0.00 | 0.00 | 0.00 | 100 | 908.8 |
| 20260902041030 | 53 | 186 | 3.5 | 4.3 | 0.00 | 0.00 | 0.00 | 100 | 908.8 |
| 20260902040915 | 53 | 186 | 3.5 | 4.3 | 0.00 | 0.00 | 0.00 | 100 | 909.1 |
| 20260902040822 | 54 | 187 | 3.5 | 4.3 | 0.00 | 0.00 | 0.00 | 100 | 905.5 |
| 20260902040707 | 54 | 187 | 3.5 | 4.3 | 0.00 | 0.00 | 0.00 | 100 | 905.5 |
| 20260902040602 | 54 | 186 | 4.3 | 4.3 | 0.00 | 0.00 | 0.00 | 100 | 906.1 |
| 20260902040457 | 54 | 186 | 4.3 | 5.2 | 0.00 | 0.00 | 0.00 | 100 | 907.0 |
| 20260902040404 | 54 | 186 | 4.3 | 5.2 | 0.00 | 0.00 | 0.00 | 100 | 908.8 |
| 20260902040249 | 54 | 187 | 4.3 | 5.2 | 0.00 | 0.00 | 0.00 | 100 | 905.5 |
| 20260902040155 | 53 | 189 | 4.3 | 5.2 | 0.00 | 0.00 | 0.00 | 100 | 905.4 |
| 20260902040041 | 53 | 189 | 4.3 | 5.2 | 0.00 | 0.00 | 0.00 | 100 | 905.3 |
| 20260902035957 | 53 | 189 | 3.5 | 5.2 | 0.00 | 0.00 | 0.00 | 100 | 905.3 |
| 20260902035842 | 53 | 189 | 3.5 | 5.2 | 0.00 | 0.00 | 0.00 | 100 | 905.6 |
| 20260902035749 | 53 | 190 | 3.5 | 5.2 | 0.00 | 0.00 | 0.00 | 100 | 906.4 |
| 20260902035634 | 53 | 192 | 3.5 | 5.2 | 0.00 | 0.00 | 0.00 | 100 | 908.0 |
| 20260902035529 | 53 | 192 | 3.5 | 5.2 | 0.00 | 0.00 | 0.00 | 100 | 911.1 |
| 20260902035424 | 53 | 192 | 3.5 | 5.2 | 0.00 | 0.00 | 0.00 | 100 | 906.0 |
| 20260902035330 | 53 | 191 | 3.5 | 4.3 | 0.00 | 0.00 | 0.00 | 100 | 906.3 |
| 20260902035216 | 54 | 190 | 3.5 | 4.3 | 0.00 | 0.00 | 0.00 | 100 | 907.1 |
| 20260902035122 | 54 | 188 | 3.5 | 4.3 | 0.00 | 0.00 | 0.00 | 100 | 907.1 |
| 20260902035007 | 54 | 186 | 3.5 | 4.3 | 0.00 | 0.00 | 0.00 | 100 | 905.7 |
| 20260902034913 | 54 | 187 | 3.5 | 4.3 | 0.00 | 0.00 | 0.00 | 100 | 905.6 |
| 20260902034758 | 54 | 188 | 3.5 | 4.3 | 0.00 | 0.00 | 0.00 | 100 | 905.5 |
| 20260902034705 | 54 | 188 | 3.5 | 4.3 | 0.00 | 0.00 | 0.00 | 100 | 905.5 |
| 20260902034550 | 53 | 190 | 3.5 | 4.3 | 0.00 | 0.00 | 0.00 | 100 | 905.9 |
| 20260902034445 | 53 | 192 | 3.5 | 4.3 | 0.00 | 0.00 | 0.00 | 100 | 905.9 |
| 20260902034340 | 53 | 193 | 3.5 | 4.3 | 0.00 | 0.00 | 0.00 | 100 | 907.0 |
| 20260902034257 | 54 | 195 | 3.5 | 5.2 | 0.00 | 0.00 | 0.00 | 100 | 907.0 |
| 20260902034142 | 54 | 196 | 3.5 | 5.2 | 0.00 | 0.00 | 0.00 | 100 | 905.7 |
| 20260902034049 | 53 | 196 | 3.5 | 5.2 | 0.00 | 0.00 | 0.00 | 100 | 905.9 |
| 20260902033934 | 53 | 195 | 3.5 | 5.2 | 0.00 | 0.00 | 0.00 | 100 | 906.1 |
| 20260902033840 | 53 | 194 | 3.5 | 5.2 | 0.00 | 0.00 | 0.00 | 100 | 908.1 |
| 20260902033725 | 53 | 193 | 3.5 | 5.2 | 0.00 | 0.00 | 0.00 | 100 | 911.3 |
| 20260902033631 | 53 | 192 | 3.5 | 5.2 | 0.00 | 0.00 | 0.00 | 100 | 905.7 |
| 20260902033517 | 53 | 192 | 3.5 | 5.2 | 0.00 | 0.00 | 0.00 | 100 | 905.4 |
| 20260902033412 | 53 | 191 | 3.5 | 5.2 | 0.00 | 0.00 | 0.00 | 100 | 905.4 |
| 20260902033307 | 53 | 193 | 3.5 | 5.2 | 0.00 | 0.00 | 0.00 | 100 | 905.6 |
| 20260902033213 | 53 | 192 | 4.3 | 5.2 | 0.00 | 0.00 | 0.00 | 100 | 905.6 |
| 20260902033058 | 53 | 193 | 4.3 | 5.2 | 0.00 | 0.00 | 0.00 | 100 | 906.2 |
| 20260902033005 | 53 | 195 | 4.3 | 5.2 | 0.00 | 0.00 | 0.00 | 100 | 910.1 |
| 20260902032850 | 53 | 195 | 4.3 | 5.2 | 0.00 | 0.00 | 0.00 | 100 | 905.6 |
| 20260902032804 | 53 | 197 | 4.3 | 5.2 | 0.00 | 0.00 | 0.00 | 100 | 905.6 |
| 20260902032647 | 53 | 197 | 4.3 | 5.2 | 0.00 | 0.00 | 0.00 | 100 | 906.5 |
| 20260902032556 | 53 | 197 | 4.3 | 5.2 | 0.00 | 0.00 | 0.00 | 100 | 907.9 |
| 20260902032438 | 53 | 197 | 4.3 | 5.2 | 0.00 | 0.00 | 0.00 | 100 | 911.1 |
| 20260902032334 | 53 | 197 | 4.3 | 5.2 | 0.00 | 0.00 | 0.00 | 100 | 905.4 |
| 20260902032228 | 53 | 198 | 4.3 | 5.2 | 0.00 | 0.00 | 0.00 | 100 | 905.3 |
| 20260902032135 | 53 | 196 | 4.3 | 5.2 | 0.00 | 0.00 | 0.00 | 100 | 905.3 |
| 20260902032020 | 53 | 196 | 4.3 | 5.2 | 0.00 | 0.00 | 0.00 | 100 | 905.5 |
| 20260902031926 | 54 | 196 | 4.3 | 5.2 | 0.00 | 0.00 | 0.00 | 100 | 905.7 |
| 20260902031811 | 54 | 197 | 4.3 | 5.2 | 0.00 | 0.00 | 0.00 | 100 | 908.6 |
| 20260902031718 | 53 | 198 | 4.3 | 5.2 | 0.00 | 0.00 | 0.00 | 100 | 910.0 |
| 20260902031603 | 53 | 200 | 4.3 | 5.2 | 0.00 | 0.00 | 0.00 | 100 | 905.6 |
| 20260902031509 | 53 | 198 | 4.3 | 5.2 | 0.00 | 0.00 | 0.00 | 100 | 906.2 |
| 20260902031354 | 53 | 198 | 4.3 | 5.2 | 0.00 | 0.00 | 0.00 | 100 | 907.3 |
| 20260902031250 | 53 | 196 | 4.3 | 5.2 | 0.00 | 0.00 | 0.00 | 100 | 909.4 |
| 20260902031155 | 53 | 195 | 4.3 | 5.2 | 0.00 | 0.00 | 0.00 | 100 | 905.5 |
| 20260902031102 | 54 | 195 | 4.3 | 5.2 | 0.00 | 0.00 | 0.00 | 100 | 905.4 |
| 20260902030947 | 53 | 196 | 3.5 | 5.2 | 0.00 | 0.00 | 0.00 | 100 | 905.3 |
| 20260902030856 | 53 | 197 | 3.5 | 5.2 | 0.00 | 0.00 | 0.00 | 100 | 905.3 |
| 20260902030738 | 53 | 197 | 4.3 | 5.2 | 0.00 | 0.00 | 0.00 | 100 | 905.4 |
| 20260902030644 | 54 | 198 | 4.3 | 5.2 | 0.00 | 0.00 | 0.00 | 100 | 906.2 |
| 20260902030529 | 54 | 199 | 4.3 | 5.2 | 0.00 | 0.00 | 0.00 | 100 | 907.3 |
| 20260902030436 | 54 | 203 | 4.3 | 5.2 | 0.00 | 0.00 | 0.00 | 100 | 910.0 |
| 20260902030321 | 54 | 204 | 3.5 | 7.0 | 0.00 | 0.00 | 0.00 | 100 | 905.8 |
| 20260902030217 | 54 | 203 | 4.3 | 7.0 | 0.00 | 0.00 | 0.00 | 100 | 906.3 |
| 20260902030111 | 53 | 203 | 3.5 | 7.0 | 0.00 | 0.00 | 0.00 | 100 | 907.2 |
| 20260902030018 | 53 | 203 | 3.5 | 7.0 | 0.00 | 0.00 | 0.00 | 100 | 909.0 |
| 20260902025903 | 53 | 202 | 3.5 | 5.2 | 0.00 | 0.00 | 0.00 | 100 | 905.6 |
| 20260902025809 | 54 | 203 | 3.5 | 5.2 | 0.00 | 0.00 | 0.00 | 100 | 905.5 |
| 20260902025654 | 54 | 204 | 3.5 | 5.2 | 0.00 | 0.00 | 0.00 | 100 | 905.5 |
| 20260902025610 | 54 | 205 | 3.5 | 5.2 | 0.00 | 0.00 | 0.00 | 100 | 905.5 |
| 20260902025456 | 54 | 206 | 3.5 | 5.2 | 0.00 | 0.00 | 0.00 | 100 | 905.4 |
| 20260902025403 | 54 | 206 | 3.5 | 5.2 | 0.00 | 0.00 | 0.00 | 100 | 905.7 |
| 20260902025247 | 54 | 205 | 3.5 | 5.2 | 0.00 | 0.00 | 0.00 | 100 | 906.4 |
| 20260902025143 | 54 | 205 | 3.5 | 5.2 | 0.00 | 0.00 | 0.00 | 100 | 911.3 |
| 20260902025037 | 54 | 207 | 3.5 | 5.2 | 0.00 | 0.00 | 0.00 | 100 | 905.8 |
| 20260902024944 | 54 | 210 | 3.5 | 5.2 | 0.00 | 0.00 | 0.00 | 100 | 906.0 |
| 20260902024829 | 54 | 217 | 3.5 | 5.2 | 0.00 | 0.00 | 0.00 | 100 | 906.3 |
| 20260902024736 | 54 | 228 | 3.5 | 5.2 | 0.00 | 0.00 | 0.00 | 100 | 909.3 |
| 20260902024621 | 54 | 227 | 3.5 | 5.2 | 0.00 | 0.00 | 0.00 | 100 | 909.1 |
| 20260902024527 | 54 | 224 | 3.5 | 5.2 | 0.00 | 0.00 | 0.00 | 100 | 905.7 |
| 20260902024412 | 54 | 218 | 3.5 | 5.2 | 0.00 | 0.00 | 0.00 | 100 | 905.6 |
| 20260902024318 | 54 | 216 | 3.5 | 4.3 | 0.00 | 0.00 | 0.00 | 100 | 905.6 |
| 20260902024204 | 54 | 222 | 2.6 | 4.3 | 0.00 | 0.00 | 0.00 | 100 | 905.5 |
| 20260902024059 | 54 | 228 | 2.6 | 4.3 | 0.00 | 0.00 | 0.00 | 100 | 905.5 |
| 20260902023954 | 54 | 230 | 2.6 | 4.3 | 0.00 | 0.00 | 0.00 | 100 | 905.6 |
| 20260902023900 | 54 | 232 | 2.6 | 4.3 | 0.00 | 0.00 | 0.00 | 100 | 906.0 |
| 20260902023756 | 54 | 233 | 2.6 | 4.3 | 0.00 | 0.00 | 0.00 | 100 | 906.9 |
| 20260902023702 | 54 | 234 | 2.6 | 4.3 | 0.00 | 0.00 | 0.00 | 100 | 908.8 |
| 20260902023547 | 54 | 230 | 2.6 | 4.3 | 0.00 | 0.00 | 0.00 | 100 | 905.7 |
| 20260902023453 | 54 | 226 | 2.6 | 4.3 | 0.00 | 0.00 | 0.00 | 100 | 905.9 |
| 20260902023339 | 54 | 221 | 1.7 | 4.3 | 0.00 | 0.00 | 0.00 | 100 | 906.3 |
| 20260902023245 | 54 | 220 | 1.7 | 4.3 | 0.00 | 0.00 | 0.00 | 100 | 908.0 |
| 20260902023130 | 54 | 224 | 1.7 | 3.5 | 0.00 | 0.00 | 0.00 | 100 | 910.7 |
| 20260902023037 | 54 | 227 | 2.6 | 3.5 | 0.00 | 0.00 | 0.00 | 100 | 910.7 |
| 20260902023026 | 53 | 227 | 2.6 | 3.5 | 0.00 | 0.00 | 0.00 | 100 | 905.9 |
| 20260902022921 | 53 | 214 | 2.6 | 3.5 | 0.00 | 0.00 | 0.00 | 100 | 905.9 |
| 20260902022827 | 53 | 210 | 2.6 | 3.5 | 0.00 | 0.00 | 0.00 | 100 | 905.8 |
| 20260902022712 | 53 | 209 | 2.6 | 3.5 | 0.00 | 0.00 | 0.00 | 100 | 905.6 |
| 20260902022619 | 53 | 208 | 2.6 | 3.5 | 0.00 | 0.00 | 0.00 | 100 | 905.6 |
| 20260902022504 | 53 | 210 | 1.7 | 3.5 | 0.00 | 0.00 | 0.00 | 100 | 905.6 |
| 20260902022409 | 53 | 210 | 1.7 | 3.5 | 0.00 | 0.00 | 0.00 | 100 | 905.5 |
| 20260902022255 | 54 | 211 | 2.6 | 3.5 | 0.00 | 0.00 | 0.00 | 100 | 905.6 |
| 20260902022201 | 54 | 217 | 2.6 | 3.5 | 0.00 | 0.00 | 0.00 | 100 | 905.9 |
| 20260902022057 | 53 | 211 | 2.6 | 3.5 | 0.00 | 0.00 | 0.00 | 100 | 908.6 |
| 20260902022004 | 53 | 210 | 2.6 | 3.5 | 0.00 | 0.00 | 0.00 | 100 | 908.6 |
| 20260902021953 | 53 | 210 | 2.6 | 3.5 | 0.00 | 0.00 | 0.00 | 100 | 910.6 |
| 20260902021848 | 53 | 210 | 2.6 | 3.5 | 0.00 | 0.00 | 0.00 | 100 | 905.9 |
| 20260902021754 | 53 | 211 | 1.7 | 3.5 | 0.00 | 0.00 | 0.00 | 100 | 905.9 |
| 20260902021639 | 54 | 219 | 1.7 | 3.5 | 0.00 | 0.00 | 0.00 | 100 | 906.0 |
| 20260902021545 | 54 | 216 | 1.7 | 3.5 | 0.00 | 0.00 | 0.00 | 100 | 906.9 |
| 20260902021431 | 54 | 215 | 1.7 | 3.5 | 0.00 | 0.00 | 0.00 | 100 | 908.1 |
| 20260902021336 | 54 | 211 | 1.7 | 3.5 | 0.00 | 0.00 | 0.00 | 100 | 910.8 |
| 20260902021222 | 54 | 210 | 2.6 | 4.3 | 0.00 | 0.00 | 0.00 | 100 | 905.8 |
| 20260902021128 | 54 | 210 | 2.6 | 4.3 | 0.00 | 0.00 | 0.00 | 100 | 905.8 |
| 20260902021013 | 54 | 208 | 2.6 | 4.3 | 0.00 | 0.00 | 0.00 | 100 | 905.7 |
| 20260902020920 | 54 | 209 | 1.7 | 4.3 | 0.00 | 0.00 | 0.00 | 100 | 905.7 |
| 20260902020804 | 54 | 210 | 1.7 | 3.5 | 0.00 | 0.00 | 0.00 | 100 | 905.6 |
| 20260902020710 | 54 | 221 | 1.7 | 3.5 | 0.00 | 0.00 | 0.00 | 100 | 905.6 |
| 20260902020555 | 54 | 228 | 1.7 | 3.5 | 0.00 | 0.00 | 0.00 | 100 | 905.7 |
| 20260902020502 | 54 | 236 | 1.7 | 3.5 | 0.00 | 0.00 | 0.00 | 100 | 905.7 |
| 20260902020347 | 54 | 239 | 1.7 | 3.5 | 0.00 | 0.00 | 0.00 | 100 | 906.5 |
| 20260902020303 | 54 | 238 | 1.7 | 3.5 | 0.00 | 0.00 | 0.00 | 100 | 907.8 |
| 20260902020148 | 54 | 238 | 2.6 | 3.5 | 0.00 | 0.00 | 0.00 | 100 | 910.1 |
| 20260902020055 | 54 | 233 | 1.7 | 3.5 | 0.00 | 0.00 | 0.00 | 100 | 905.9 |
| 20260902015940 | 54 | 235 | 2.6 | 4.3 | 0.00 | 0.00 | 0.00 | 100 | 906.0 |
| 20260902015838 | 54 | 236 | 2.6 | 4.3 | 0.00 | 0.00 | 0.00 | 100 | 906.3 |
| 20260902015729 | 54 | 231 | 2.6 | 4.3 | 0.00 | 0.00 | 0.00 | 100 | 907.4 |
| 20260902015636 | 54 | 229 | 2.6 | 4.3 | 0.00 | 0.00 | 0.00 | 100 | 909.1 |
| 20260902015521 | 54 | 226 | 2.6 | 3.5 | 0.00 | 0.00 | 0.00 | 100 | 910.9 |
| 20260902015427 | 54 | 225 | 1.7 | 3.5 | 0.00 | 0.00 | 0.00 | 100 | 906.0 |
| 20260902015312 | 54 | 218 | 1.7 | 3.5 | 0.00 | 0.00 | 0.00 | 100 | 905.8 |
| 20260902015218 | 54 | 214 | 1.7 | 3.5 | 0.00 | 0.00 | 0.00 | 100 | 905.8 |
| 20260902015104 | 54 | 229 | 2.6 | 3.5 | 0.00 | 0.00 | 0.00 | 100 | 905.8 |
| 20260902015010 | 54 | 235 | 2.6 | 4.3 | 0.00 | 0.00 | 0.00 | 100 | 905.7 |
| 20260902014855 | 54 | 239 | 2.6 | 4.3 | 0.00 | 0.00 | 0.00 | 100 | 905.6 |
| 20260902014751 | 54 | 239 | 3.5 | 5.2 | 0.00 | 0.00 | 0.00 | 100 | 905.6 |
| 20260902014656 | 54 | 237 | 3.5 | 5.2 | 0.00 | 0.00 | 0.00 | 100 | 905.7 |
| 20260902014603 | 54 | 231 | 3.5 | 5.2 | 0.00 | 0.00 | 0.00 | 100 | 906.2 |
| 20260902014448 | 53 | 219 | 3.5 | 5.2 | 0.00 | 0.00 | 0.00 | 100 | 910.3 |
| 20260902014354 | 53 | 218 | 3.5 | 5.2 | 0.00 | 0.00 | 0.00 | 100 | 905.8 |
| 20260902014239 | 54 | 217 | 3.5 | 5.2 | 0.00 | 0.00 | 0.00 | 100 | 905.8 |
| 20260902014145 | 54 | 219 | 2.6 | 5.2 | 0.00 | 0.00 | 0.00 | 100 | 905.8 |
| 20260902014030 | 54 | 218 | 3.5 | 4.3 | 0.00 | 0.00 | 0.00 | 100 | 907.8 |
| 20260902013937 | 54 | 213 | 2.6 | 4.3 | 0.00 | 0.00 | 0.00 | 100 | 907.8 |
| 20260902013822 | 54 | 211 | 2.6 | 4.3 | 0.00 | 0.00 | 0.00 | 100 | 910.2 |
| 20260902013728 | 54 | 219 | 2.6 | 4.3 | 0.00 | 0.00 | 0.00 | 100 | 905.9 |
| 20260902013612 | 54 | 226 | 3.5 | 4.3 | 0.00 | 0.00 | 0.00 | 100 | 905.9 |
| 20260902013519 | 54 | 228 | 2.6 | 4.3 | 0.00 | 0.00 | 0.00 | 100 | 905.8 |
| 20260902013404 | 54 | 224 | 2.6 | 4.3 | 0.00 | 0.00 | 0.00 | 100 | 905.6 |
| 20260902013310 | 54 | 215 | 2.6 | 4.3 | 0.00 | 0.00 | 0.00 | 100 | 905.5 |
| 20260902013155 | 54 | 214 | 2.6 | 4.3 | 0.00 | 0.00 | 0.00 | 100 | 905.8 |
| 20260902013111 | 54 | 216 | 2.6 | 4.3 | 0.00 | 0.00 | 0.00 | 100 | 906.2 |
| 20260902012957 | 54 | 221 | 2.6 | 4.3 | 0.00 | 0.00 | 0.00 | 100 | 909.9 |
| 20260902012903 | 54 | 228 | 2.6 | 4.3 | 0.00 | 0.00 | 0.00 | 100 | 909.9 |
| 20260902012749 | 54 | 227 | 2.6 | 4.3 | 0.00 | 0.00 | 0.00 | 100 | 907.0 |
| 20260902012644 | 54 | 220 | 2.6 | 4.3 | 0.00 | 0.00 | 0.00 | 100 | 905.9 |
| 20260902012539 | 54 | 218 | 2.6 | 4.3 | 0.00 | 0.00 | 0.00 | 100 | 906.4 |
| 20260902012446 | 54 | 211 | 2.6 | 4.3 | 0.00 | 0.00 | 0.00 | 100 | 907.2 |
| 20260902012331 | 54 | 211 | 2.6 | 4.3 | 0.00 | 0.00 | 0.00 | 100 | 908.9 |
| 20260902012237 | 54 | 219 | 2.6 | 5.2 | 0.00 | 0.00 | 0.00 | 100 | 911.5 |
| 20260902012122 | 54 | 225 | 3.5 | 5.2 | 0.00 | 0.00 | 0.00 | 100 | 905.8 |
| 20260902012028 | 54 | 223 | 3.5 | 5.2 | 0.00 | 0.00 | 0.00 | 100 | 905.7 |
| 20260902011914 | 53 | 222 | 3.5 | 5.2 | 0.00 | 0.00 | 0.00 | 100 | 905.6 |
| 20260902011820 | 53 | 219 | 3.5 | 4.3 | 0.00 | 0.00 | 0.00 | 100 | 905.5 |
| 20260902011705 | 54 | 219 | 3.5 | 4.3 | 0.00 | 0.00 | 0.00 | 100 | 905.8 |
| 20260902011600 | 54 | 226 | 3.5 | 4.3 | 0.00 | 0.00 | 0.00 | 100 | 906.5 |
| 20260902011455 | 54 | 228 | 3.5 | 4.3 | 0.00 | 0.00 | 0.00 | 100 | 908.3 |
| 20260902011412 | 54 | 226 | 3.5 | 4.3 | 0.00 | 0.00 | 0.00 | 100 | 908.3 |
| 20260902011258 | 54 | 225 | 3.5 | 4.3 | 0.00 | 0.00 | 0.00 | 100 | 905.8 |
| 20260902011204 | 54 | 222 | 2.6 | 4.3 | 0.00 | 0.00 | 0.00 | 100 | 906.0 |
| 20260902011049 | 54 | 227 | 3.5 | 5.2 | 0.00 | 0.00 | 0.00 | 100 | 906.3 |
| 20260902010955 | 54 | 230 | 3.5 | 5.2 | 0.00 | 0.00 | 0.00 | 100 | 907.7 |
| 20260902010840 | 54 | 228 | 3.5 | 5.2 | 0.00 | 0.00 | 0.00 | 100 | 909.9 |
| 20260902010747 | 54 | 221 | 3.5 | 5.2 | 0.00 | 0.00 | 0.00 | 100 | 906.5 |
| 20260902010632 | 54 | 217 | 3.5 | 5.2 | 0.00 | 0.00 | 0.00 | 100 | 905.7 |
| 20260902010527 | 54 | 214 | 3.5 | 5.2 | 0.00 | 0.00 | 0.00 | 100 | 905.5 |
| 20260902010422 | 54 | 217 | 3.5 | 5.2 | 0.00 | 0.00 | 0.00 | 100 | 905.5 |
| 20260902010329 | 54 | 225 | 2.6 | 4.3 | 0.00 | 0.00 | 0.00 | 100 | 905.5 |
| 20260902010213 | 54 | 220 | 2.6 | 3.5 | 0.00 | 0.00 | 0.00 | 100 | 906.4 |
| 20260902010120 | 54 | 210 | 2.6 | 3.5 | 0.00 | 0.00 | 0.00 | 100 | 906.4 |
| 20260902010005 | 54 | 208 | 2.6 | 3.5 | 0.00 | 0.00 | 0.00 | 100 | 907.7 |
| 20260902005910 | 53 | 208 | 2.6 | 3.5 | 0.00 | 0.00 | 0.00 | 100 | 910.3 |
| 20260902005756 | 53 | 209 | 1.7 | 3.5 | 0.00 | 0.00 | 0.00 | 100 | 905.9 |
| 20260902005715 | 54 | 212 | 1.7 | 3.5 | 0.00 | 0.00 | 0.00 | 100 | 905.9 |
| 20260902005558 | 54 | 227 | 1.7 | 4.3 | 0.00 | 0.00 | 0.00 | 100 | 906.0 |
| 20260902005454 | 54 | 232 | 2.6 | 4.3 | 0.00 | 0.00 | 0.00 | 100 | 907.0 |
| 20260902005348 | 54 | 228 | 2.6 | 4.3 | 0.00 | 0.00 | 0.00 | 100 | 908.1 |
| 20260902005255 | 54 | 221 | 2.6 | 5.2 | 0.00 | 0.00 | 0.00 | 100 | 910.8 |
| 20260902005140 | 54 | 212 | 2.6 | 5.2 | 0.00 | 0.00 | 0.00 | 100 | 906.0 |
| 20260902005047 | 54 | 210 | 2.6 | 5.2 | 0.00 | 0.00 | 0.00 | 100 | 906.0 |
| 20260902004931 | 54 | 209 | 2.6 | 5.2 | 0.00 | 0.00 | 0.00 | 100 | 905.8 |
| 20260902004837 | 54 | 209 | 2.6 | 4.3 | 0.00 | 0.00 | 0.00 | 100 | 905.7 |
| 20260902004723 | 54 | 208 | 3.5 | 5.2 | 0.00 | 0.00 | 0.00 | 100 | 905.6 |
| 20260902004629 | 54 | 207 | 3.5 | 5.2 | 0.00 | 0.00 | 0.00 | 100 | 906.0 |
| 20260902004514 | 54 | 207 | 3.5 | 5.2 | 0.00 | 0.00 | 0.00 | 100 | 907.0 |
| 20260902004410 | 54 | 209 | 3.5 | 5.2 | 0.00 | 0.00 | 0.00 | 100 | 908.9 |
| 20260902004310 | 54 | 216 | 3.5 | 5.2 | 0.00 | 0.00 | 0.00 | 100 | 906.1 |
| 20260902004216 | 54 | 225 | 3.5 | 5.2 | 0.00 | 0.00 | 0.00 | 100 | 906.5 |
| 20260902004101 | 54 | 226 | 4.3 | 6.1 | 0.00 | 0.00 | 0.00 | 100 | 907.6 |
| 20260902004008 | 54 | 224 | 4.3 | 6.1 | 0.00 | 0.00 | 0.00 | 100 | 905.6 |
| 20260902003852 | 54 | 223 | 4.3 | 6.1 | 0.00 | 0.00 | 0.00 | 100 | 905.4 |
| 20260902003758 | 54 | 226 | 4.3 | 7.0 | 0.00 | 0.00 | 0.00 | 100 | 905.4 |
| 20260902003643 | 55 | 224 | 4.3 | 7.0 | 0.00 | 0.00 | 0.00 | 100 | 905.4 |
| 20260902003550 | 54 | 227 | 5.2 | 7.0 | 0.00 | 0.00 | 0.00 | 100 | 905.5 |
| 20260902003435 | 54 | 229 | 5.2 | 7.0 | 0.00 | 0.00 | 0.00 | 100 | 906.4 |
| 20260902003331 | 54 | 228 | 5.2 | 7.0 | 0.00 | 0.00 | 0.00 | 100 | 908.0 |
| 20260902003226 | 54 | 234 | 4.3 | 7.0 | 0.00 | 0.00 | 0.00 | 100 | 910.9 |
| 20260902003131 | 54 | 235 | 4.3 | 7.0 | 0.00 | 0.00 | 0.00 | 100 | 905.9 |
| 20260902003017 | 54 | 235 | 4.3 | 6.1 | 0.00 | 0.00 | 0.00 | 100 | 906.6 |
| 20260902002924 | 54 | 235 | 4.3 | 6.1 | 0.00 | 0.00 | 0.00 | 100 | 907.7 |
| 20260902002808 | 54 | 235 | 4.3 | 6.1 | 0.00 | 0.00 | 0.00 | 100 | 905.7 |
| 20260902002725 | 54 | 238 | 4.3 | 5.2 | 0.00 | 0.00 | 0.00 | 100 | 905.7 |
| 20260902002610 | 54 | 241 | 3.5 | 5.2 | 0.00 | 0.00 | 0.00 | 100 | 905.6 |
| 20260902002517 | 54 | 241 | 3.5 | 5.2 | 0.00 | 0.00 | 0.00 | 100 | 905.6 |
| 20260902002402 | 54 | 241 | 3.5 | 5.2 | 0.00 | 0.00 | 0.00 | 100 | 905.5 |
| 20260902002257 | 54 | 239 | 3.5 | 5.2 | 0.00 | 0.00 | 0.00 | 100 | 905.8 |
| 20260902002152 | 54 | 239 | 3.5 | 5.2 | 0.00 | 0.00 | 0.00 | 100 | 906.5 |
| 20260902002059 | 54 | 239 | 3.5 | 5.2 | 0.00 | 0.00 | 0.00 | 100 | 908.0 |
| 20260902001944 | 54 | 241 | 3.5 | 5.2 | 0.00 | 0.00 | 0.00 | 100 | 905.9 |
| 20260902001850 | 54 | 242 | 2.6 | 4.3 | 0.00 | 0.00 | 0.00 | 100 | 906.0 |
| 20260902001735 | 54 | 242 | 2.6 | 4.3 | 0.00 | 0.00 | 0.00 | 100 | 905.9 |
| 20260902001641 | 54 | 241 | 2.6 | 4.3 | 0.00 | 0.00 | 0.00 | 100 | 906.1 |
| 20260902001526 | 54 | 239 | 2.6 | 4.3 | 0.00 | 0.00 | 0.00 | 100 | 907.1 |
| 20260902001439 | 54 | 237 | 3.5 | 4.3 | 0.00 | 0.00 | 0.00 | 100 | 908.5 |
| 20260902001318 | 54 | 235 | 3.5 | 4.3 | 0.00 | 0.00 | 0.00 | 100 | 912.7 |
| 20260902001225 | 54 | 232 | 3.5 | 4.3 | 0.00 | 0.00 | 0.00 | 100 | 912.7 |
| 20260902001214 | 54 | 232 | 3.5 | 4.3 | 0.00 | 0.00 | 0.00 | 100 | 906.0 |
| 20260902001108 | 54 | 228 | 2.6 | 4.3 | 0.00 | 0.00 | 0.00 | 100 | 905.9 |
| 20260902001025 | 54 | 226 | 2.6 | 4.3 | 0.00 | 0.00 | 0.00 | 100 | 905.9 |
| 20260902000911 | 54 | 224 | 2.6 | 4.3 | 0.00 | 0.00 | 0.00 | 100 | 906.0 |
| 20260902000817 | 54 | 226 | 1.7 | 4.3 | 0.00 | 0.00 | 0.00 | 100 | 905.9 |
| 20260902000702 | 54 | 230 | 1.7 | 3.5 | 0.00 | 0.00 | 0.00 | 100 | 906.6 |
| 20260902000607 | 54 | 236 | 1.7 | 2.6 | 0.00 | 0.00 | 0.00 | 100 | 907.7 |
| 20260902000453 | 54 | 240 | 0.9 | 2.6 | 0.00 | 0.00 | 0.00 | 100 | 909.8 |
| 20260902000359 | 54 | 252 | 0.9 | 3.5 | 0.00 | 0.00 | 0.00 | 100 | 906.5 |
| 20260902000244 | 54 | 257 | 0.9 | 3.5 | 0.00 | 0.00 | 0.00 | 100 | 906.4 |
| 20260902000140 | 53 | 255 | 0.9 | 3.5 | 0.00 | 0.00 | 0.00 | 100 | 906.5 |
| 20260902000035 | 53 | 248 | 0.9 | 3.5 | 0.00 | 0.00 | 0.00 | 100 | 906.5 |
| 20260901235941 | 53 | 248 | 0.9 | 3.5 | 0.00 | 0.00 | 0.00 | 100 | 906.5 |
| 20260901235826 | 54 | 264 | 0.9 | 3.5 | 0.00 | 0.00 | 0.00 | 100 | 906.4 |
| 20260901235732 | 54 | 277 | 0.9 | 3.5 | 0.00 | 0.00 | 0.00 | 100 | 906.2 |
| 20260901235618 | 54 | 279 | 1.7 | 3.5 | 0.00 | 0.00 | 0.00 | 100 | 906.2 |
| 20260901235523 | 54 | 283 | 1.7 | 3.5 | 0.00 | 0.00 | 0.00 | 100 | 906.2 |
| 20260901235409 | 54 | 281 | 1.7 | 3.5 | 0.00 | 0.00 | 0.00 | 100 | 906.1 |
| 20260901235326 | 54 | 283 | 1.7 | 3.5 | 0.00 | 0.00 | 0.00 | 100 | 906.1 |
| 20260901235211 | 54 | 284 | 0.9 | 3.5 | 0.00 | 0.00 | 0.00 | 100 | 906.5 |
| 20260901235107 | 54 | 255 | 0.9 | 2.6 | 0.00 | 0.00 | 0.00 | 100 | 907.1 |
| 20260901235001 | 54 | 246 | 0.9 | 1.7 | 0.00 | 0.00 | 0.00 | 100 | 908.2 |
| 20260901234908 | 54 | 247 | 0.9 | 1.7 | 0.00 | 0.00 | 0.00 | 100 | 908.2 |
| 20260901234753 | 54 | 250 | 0.9 | 1.7 | 0.00 | 0.00 | 0.00 | 100 | 906.4 |
| 20260901234700 | 54 | 244 | 0.9 | 1.7 | 0.00 | 0.00 | 0.00 | 100 | 906.4 |
| 20260901234545 | 54 | 245 | 0.9 | 2.6 | 0.00 | 0.00 | 0.00 | 100 | 906.3 |
| 20260901234450 | 54 | 239 | 1.7 | 3.5 | 0.00 | 0.00 | 0.00 | 100 | 906.5 |
| 20260901234336 | 54 | 239 | 1.7 | 3.5 | 0.00 | 0.00 | 0.00 | 100 | 906.2 |
| 20260901234241 | 54 | 239 | 1.7 | 3.5 | 0.00 | 0.00 | 0.00 | 100 | 906.2 |
| 20260901234127 | 54 | 237 | 1.7 | 3.5 | 0.00 | 0.00 | 0.00 | 100 | 906.2 |
| 20260901234023 | 55 | 240 | 1.7 | 3.5 | 0.00 | 0.00 | 0.00 | 100 | 906.1 |
| 20260901233918 | 55 | 242 | 1.7 | 2.6 | 0.00 | 0.00 | 0.00 | 100 | 906.1 |
| 20260901233824 | 54 | 244 | 1.7 | 2.6 | 0.00 | 0.00 | 0.00 | 100 | 906.1 |
| 20260901233709 | 54 | 252 | 1.7 | 3.5 | 0.00 | 0.00 | 0.00 | 100 | 906.0 |
| 20260901233626 | 54 | 253 | 1.7 | 3.5 | 0.00 | 0.00 | 0.00 | 100 | 906.0 |
| 20260901233512 | 54 | 259 | 1.7 | 3.5 | 0.00 | 0.00 | 0.00 | 100 | 907.6 |
| 20260901233417 | 54 | 261 | 1.7 | 3.5 | 0.00 | 0.00 | 0.00 | 100 | 907.6 |
| 20260901233302 | 54 | 257 | 0.9 | 3.5 | 0.00 | 0.00 | 0.00 | 100 | 909.6 |
| 20260901233209 | 54 | 258 | 0.9 | 3.5 | 0.00 | 0.00 | 0.00 | 100 | 910.2 |
| 20260901233054 | 54 | 255 | 1.7 | 3.5 | 0.00 | 0.00 | 0.00 | 100 | 906.2 |
| 20260901232950 | 54 | 254 | 1.7 | 3.5 | 0.00 | 0.00 | 0.00 | 100 | 906.1 |
| 20260901232844 | 54 | 252 | 1.7 | 3.5 | 0.00 | 0.00 | 0.00 | 100 | 905.9 |
| 20260901232750 | 54 | 240 | 2.6 | 3.5 | 0.00 | 0.00 | 0.00 | 100 | 905.9 |
| 20260901232636 | 54 | 241 | 2.6 | 3.5 | 0.00 | 0.00 | 0.00 | 100 | 905.8 |
| 20260901232543 | 54 | 239 | 2.6 | 4.3 | 0.00 | 0.00 | 0.00 | 100 | 905.6 |
| 20260901232428 | 55 | 237 | 2.6 | 4.3 | 0.00 | 0.00 | 0.00 | 100 | 905.5 |
| 20260901232334 | 55 | 237 | 2.6 | 4.3 | 0.00 | 0.00 | 0.00 | 100 | 905.4 |
| 20260901232219 | 54 | 228 | 2.6 | 4.3 | 0.00 | 0.00 | 0.00 | 100 | 905.4 |
| 20260901232125 | 54 | 228 | 2.6 | 4.3 | 0.00 | 0.00 | 0.00 | 100 | 905.4 |
| 20260901232010 | 54 | 226 | 1.7 | 3.5 | 0.00 | 0.00 | 0.00 | 100 | 905.5 |
| 20260901231917 | 54 | 224 | 1.7 | 3.5 | 0.00 | 0.00 | 0.00 | 100 | 906.4 |
| 20260901231811 | 54 | 229 | 2.6 | 4.3 | 0.00 | 0.00 | 0.00 | 100 | 907.6 |
| 20260901231718 | 55 | 232 | 2.6 | 4.3 | 0.00 | 0.00 | 0.00 | 100 | 910.3 |
| 20260901231604 | 55 | 230 | 2.6 | 4.3 | 0.00 | 0.00 | 0.00 | 100 | 910.2 |
| 20260901231509 | 54 | 231 | 2.6 | 4.3 | 0.00 | 0.00 | 0.00 | 100 | 906.1 |
| 20260901231355 | 54 | 231 | 2.6 | 4.3 | 0.00 | 0.00 | 0.00 | 100 | 905.9 |
| 20260901231300 | 55 | 230 | 2.6 | 4.3 | 0.00 | 0.00 | 0.00 | 100 | 906.0 |
| 20260901231145 | 55 | 232 | 1.7 | 4.3 | 0.00 | 0.00 | 0.00 | 100 | 905.9 |
| 20260901231051 | 55 | 225 | 1.7 | 4.3 | 0.00 | 0.00 | 0.00 | 100 | 905.9 |
| 20260901230936 | 55 | 227 | 1.7 | 3.5 | 0.00 | 0.00 | 0.00 | 100 | 905.8 |
| 20260901230832 | 55 | 227 | 2.6 | 3.5 | 0.00 | 0.00 | 0.00 | 100 | 905.8 |
| 20260901230727 | 55 | 229 | 2.6 | 3.5 | 0.00 | 0.00 | 0.00 | 100 | 905.7 |
| 20260901230632 | 55 | 232 | 2.6 | 3.5 | 0.00 | 0.00 | 0.00 | 100 | 906.1 |
| 20260901230518 | 55 | 233 | 2.6 | 3.5 | 0.00 | 0.00 | 0.00 | 100 | 906.6 |
| 20260901230425 | 55 | 230 | 2.6 | 3.5 | 0.00 | 0.00 | 0.00 | 100 | 910.3 |
| 20260901230310 | 55 | 222 | 2.6 | 3.5 | 0.00 | 0.00 | 0.00 | 100 | 905.9 |
| 20260901230226 | 55 | 224 | 2.6 | 4.3 | 0.00 | 0.00 | 0.00 | 100 | 906.0 |
| 20260901230111 | 55 | 225 | 2.6 | 4.3 | 0.00 | 0.00 | 0.00 | 100 | 906.0 |
| 20260901230018 | 55 | 227 | 2.6 | 4.3 | 0.00 | 0.00 | 0.00 | 100 | 906.2 |
| 20260901225903 | 55 | 230 | 2.6 | 4.3 | 0.00 | 0.00 | 0.00 | 100 | 906.6 |
| 20260901225809 | 55 | 227 | 2.6 | 4.3 | 0.00 | 0.00 | 0.00 | 100 | 906.6 |
| 20260901225759 | 55 | 227 | 2.6 | 4.3 | 0.00 | 0.00 | 0.00 | 100 | 907.6 |
| 20260901225653 | 55 | 232 | 2.6 | 4.3 | 0.00 | 0.00 | 0.00 | 100 | 907.6 |
| 20260901225600 | 54 | 229 | 2.6 | 4.3 | 0.00 | 0.00 | 0.00 | 100 | 911.6 |
| 20260901225445 | 54 | 228 | 2.6 | 4.3 | 0.00 | 0.00 | 0.00 | 100 | 906.2 |
| 20260901225351 | 55 | 229 | 2.6 | 4.3 | 0.00 | 0.00 | 0.00 | 100 | 906.2 |
| 20260901225237 | 55 | 228 | 2.6 | 4.3 | 0.00 | 0.00 | 0.00 | 100 | 906.1 |
| 20260901225143 | 55 | 228 | 2.6 | 3.5 | 0.00 | 0.00 | 0.00 | 100 | 906.2 |
| 20260901225028 | 54 | 228 | 1.7 | 3.5 | 0.00 | 0.00 | 0.00 | 100 | 906.2 |
| 20260901224934 | 54 | 223 | 1.7 | 3.5 | 0.00 | 0.00 | 0.00 | 100 | 906.3 |
| 20260901224819 | 54 | 224 | 1.7 | 3.5 | 0.00 | 0.00 | 0.00 | 100 | 906.6 |
| 20260901224715 | 54 | 227 | 1.7 | 3.5 | 0.00 | 0.00 | 0.00 | 100 | 909.2 |
| 20260901224610 | 54 | 230 | 1.7 | 3.5 | 0.00 | 0.00 | 0.00 | 100 | 911.5 |
| 20260901224527 | 54 | 230 | 1.7 | 3.5 | 0.00 | 0.00 | 0.00 | 100 | 911.5 |
| 20260901224412 | 54 | 231 | 1.7 | 3.5 | 0.00 | 0.00 | 0.00 | 100 | 906.4 |
| 20260901224318 | 55 | 229 | 1.7 | 3.5 | 0.00 | 0.00 | 0.00 | 100 | 906.3 |
| 20260901224203 | 54 | 225 | 1.7 | 3.5 | 0.00 | 0.00 | 0.00 | 100 | 906.2 |
| 20260901224109 | 54 | 210 | 1.7 | 3.5 | 0.00 | 0.00 | 0.00 | 100 | 906.1 |
| 20260901223955 | 54 | 210 | 1.7 | 3.5 | 0.00 | 0.00 | 0.00 | 100 | 906.0 |
| 20260901223901 | 54 | 210 | 1.7 | 3.5 | 0.00 | 0.00 | 0.00 | 100 | 906.0 |
| 20260901223746 | 54 | 210 | 1.7 | 3.5 | 0.00 | 0.00 | 0.00 | 100 | 905.9 |
| 20260901223642 | 55 | 210 | 1.7 | 3.5 | 0.00 | 0.00 | 0.00 | 100 | 905.9 |
| 20260901223536 | 54 | 215 | 1.7 | 3.5 | 0.00 | 0.00 | 0.00 | 100 | 906.1 |
| 20260901223443 | 54 | 227 | 1.7 | 3.5 | 0.00 | 0.00 | 0.00 | 100 | 906.6 |
| 20260901223328 | 55 | 227 | 1.7 | 3.5 | 0.00 | 0.00 | 0.00 | 100 | 907.7 |
| 20260901223235 | 55 | 227 | 1.7 | 3.5 | 0.00 | 0.00 | 0.00 | 100 | 907.7 |
| 20260901223120 | 54 | 227 | 1.7 | 3.5 | 0.00 | 0.00 | 0.00 | 100 | 906.1 |
| 20260901223025 | 54 | 233 | 1.7 | 3.5 | 0.00 | 0.00 | 0.00 | 100 | 906.1 |
| 20260901222911 | 54 | 235 | 1.7 | 3.5 | 0.00 | 0.00 | 0.00 | 100 | 906.1 |
| 20260901222827 | 54 | 238 | 1.7 | 3.5 | 0.00 | 0.00 | 0.00 | 100 | 906.2 |
| 20260901222713 | 54 | 236 | 1.7 | 3.5 | 0.00 | 0.00 | 0.00 | 100 | 906.5 |
| 20260901222608 | 54 | 235 | 1.7 | 3.5 | 0.00 | 0.00 | 0.00 | 100 | 907.0 |
| 20260901222503 | 54 | 236 | 1.7 | 3.5 | 0.00 | 0.00 | 0.00 | 100 | 908.1 |
| 20260901222409 | 54 | 235 | 1.7 | 3.5 | 0.00 | 0.00 | 0.00 | 100 | 907.7 |
| 20260901222255 | 54 | 235 | 1.7 | 3.5 | 0.00 | 0.00 | 0.00 | 100 | 906.3 |
| 20260901222202 | 54 | 237 | 1.7 | 3.5 | 0.00 | 0.00 | 0.00 | 100 | 906.2 |
| 20260901222046 | 55 | 239 | 1.7 | 3.5 | 0.00 | 0.00 | 0.00 | 100 | 906.2 |
| 20260901221952 | 55 | 239 | 2.6 | 3.5 | 0.00 | 0.00 | 0.00 | 100 | 906.2 |
| 20260901221838 | 54 | 241 | 2.6 | 3.5 | 0.00 | 0.00 | 0.00 | 100 | 906.2 |
| 20260901221744 | 54 | 241 | 2.6 | 3.5 | 0.00 | 0.00 | 0.00 | 100 | 906.2 |
| 20260901221629 | 54 | 245 | 2.6 | 3.5 | 0.00 | 0.00 | 0.00 | 100 | 906.3 |
| 20260901221524 | 55 | 246 | 2.6 | 3.5 | 0.00 | 0.00 | 0.00 | 100 | 906.6 |
| 20260901221419 | 55 | 250 | 1.7 | 3.5 | 0.00 | 0.00 | 0.00 | 100 | 907.7 |
| 20260901221326 | 55 | 250 | 1.7 | 3.5 | 0.00 | 0.00 | 0.00 | 100 | 909.8 |
| 20260901221211 | 55 | 262 | 1.7 | 3.5 | 0.00 | 0.00 | 0.00 | 100 | 906.3 |
| 20260901221128 | 55 | 266 | 1.7 | 4.3 | 0.00 | 0.00 | 0.00 | 100 | 906.3 |
| 20260901221013 | 55 | 272 | 1.7 | 4.3 | 0.00 | 0.00 | 0.00 | 100 | 906.3 |
| 20260901220918 | 55 | 274 | 1.7 | 4.3 | 0.00 | 0.00 | 0.00 | 100 | 906.2 |
| 20260901220804 | 55 | 275 | 1.7 | 4.3 | 0.00 | 0.00 | 0.00 | 100 | 906.2 |
| 20260901220709 | 55 | 270 | 1.7 | 3.5 | 0.00 | 0.00 | 0.00 | 100 | 906.2 |
| 20260901220555 | 55 | 272 | 1.7 | 3.5 | 0.00 | 0.00 | 0.00 | 100 | 906.1 |
| 20260901220451 | 55 | 267 | 1.7 | 3.5 | 0.00 | 0.00 | 0.00 | 100 | 906.0 |
| 20260901220345 | 55 | 268 | 1.7 | 3.5 | 0.00 | 0.00 | 0.00 | 100 | 906.0 |
| 20260901220251 | 55 | 273 | 1.7 | 6.1 | 0.00 | 0.00 | 0.00 | 100 | 906.0 |
| 20260901220137 | 55 | 287 | 2.6 | 7.0 | 0.00 | 0.00 | 0.00 | 100 | 906.0 |
| 20260901220044 | 55 | 291 | 3.5 | 7.0 | 0.00 | 0.00 | 0.00 | 100 | 906.9 |
| 20260901215929 | 55 | 290 | 3.5 | 7.0 | 0.00 | 0.00 | 0.00 | 100 | 908.7 |
| 20260901215832 | 55 | 287 | 2.6 | 5.2 | 0.00 | 0.00 | 0.00 | 100 | 910.8 |
| 20260901215726 | 55 | 281 | 1.7 | 5.2 | 0.00 | 0.00 | 0.00 | 100 | 906.2 |
| 20260901215632 | 55 | 279 | 1.7 | 5.2 | 0.00 | 0.00 | 0.00 | 100 | 906.3 |
| 20260901215517 | 55 | 275 | 1.7 | 5.2 | 0.00 | 0.00 | 0.00 | 100 | 906.3 |
| 20260901215424 | 55 | 275 | 1.7 | 5.2 | 0.00 | 0.00 | 0.00 | 100 | 906.3 |
| 20260901215413 | 55 | 275 | 1.7 | 5.2 | 0.00 | 0.00 | 0.00 | 100 | 906.5 |
| 20260901215307 | 55 | 270 | 1.7 | 5.2 | 0.00 | 0.00 | 0.00 | 100 | 906.5 |
| 20260901215214 | 55 | 274 | 1.7 | 5.2 | 0.00 | 0.00 | 0.00 | 100 | 908.0 |
| 20260901215059 | 54 | 277 | 1.7 | 5.2 | 0.00 | 0.00 | 0.00 | 100 | 910.0 |
| 20260901215006 | 54 | 275 | 1.7 | 5.2 | 0.00 | 0.00 | 0.00 | 100 | 909.3 |
| 20260901214851 | 55 | 270 | 1.7 | 3.5 | 0.00 | 0.00 | 0.00 | 100 | 906.3 |
| 20260901214756 | 54 | 256 | 1.7 | 3.5 | 0.00 | 0.00 | 0.00 | 100 | 906.4 |
| 20260901214642 | 54 | 257 | 1.7 | 3.5 | 0.00 | 0.00 | 0.00 | 100 | 906.3 |
| 20260901214548 | 54 | 255 | 1.7 | 3.5 | 0.00 | 0.00 | 0.00 | 100 | 906.2 |
| 20260901214433 | 54 | 262 | 1.7 | 3.5 | 0.00 | 0.00 | 0.00 | 100 | 906.2 |
| 20260901214329 | 54 | 268 | 1.7 | 4.3 | 0.00 | 0.00 | 0.00 | 100 | 906.1 |
| 20260901214223 | 54 | 273 | 1.7 | 4.3 | 0.00 | 0.00 | 0.00 | 100 | 906.1 |
| 20260901214130 | 54 | 273 | 1.7 | 4.3 | 0.00 | 0.00 | 0.00 | 100 | 906.1 |
| 20260901214015 | 55 | 272 | 1.7 | 4.3 | 0.00 | 0.00 | 0.00 | 100 | 907.3 |
| 20260901213932 | 55 | 272 | 1.7 | 4.3 | 0.00 | 0.00 | 0.00 | 100 | 907.3 |
| 20260901213817 | 55 | 267 | 1.7 | 3.5 | 0.00 | 0.00 | 0.00 | 100 | 908.8 |
| 20260901213724 | 55 | 273 | 1.7 | 7.0 | 0.00 | 0.00 | 0.00 | 100 | 906.1 |
| 20260901213608 | 55 | 275 | 2.6 | 7.0 | 0.00 | 0.00 | 0.00 | 100 | 906.2 |
| 20260901213515 | 55 | 279 | 2.6 | 7.0 | 0.00 | 0.00 | 0.00 | 100 | 906.1 |
| 20260901213400 | 55 | 279 | 3.5 | 7.0 | 0.00 | 0.00 | 0.00 | 100 | 905.9 |
| 20260901213255 | 55 | 286 | 2.6 | 6.1 | 0.00 | 0.00 | 0.00 | 100 | 905.8 |
| 20260901213150 | 55 | 287 | 2.6 | 6.1 | 0.00 | 0.00 | 0.00 | 100 | 905.8 |
| 20260901213056 | 55 | 286 | 2.6 | 6.1 | 0.00 | 0.00 | 0.00 | 100 | 905.7 |
| 20260901212942 | 55 | 283 | 2.6 | 6.1 | 0.00 | 0.00 | 0.00 | 100 | 905.7 |
| 20260901212848 | 55 | 277 | 1.7 | 5.2 | 0.00 | 0.00 | 0.00 | 100 | 905.7 |
| 20260901212733 | 54 | 271 | 1.7 | 3.5 | 0.00 | 0.00 | 0.00 | 100 | 905.7 |
| 20260901212639 | 54 | 271 | 1.7 | 4.3 | 0.00 | 0.00 | 0.00 | 100 | 905.7 |
| 20260901212524 | 55 | 270 | 1.7 | 4.3 | 0.00 | 0.00 | 0.00 | 100 | 906.2 |
| 20260901212430 | 55 | 272 | 2.6 | 5.2 | 0.00 | 0.00 | 0.00 | 100 | 906.9 |
| 20260901212316 | 55 | 273 | 2.6 | 5.2 | 0.00 | 0.00 | 0.00 | 100 | 908.5 |
| 20260901212225 | 55 | 281 | 2.6 | 5.2 | 0.00 | 0.00 | 0.00 | 100 | 914.6 |
| 20260901212116 | 55 | 281 | 2.6 | 6.1 | 0.00 | 0.00 | 0.00 | 100 | 907.3 |
| 20260901212023 | 55 | 282 | 2.6 | 6.1 | 0.00 | 0.00 | 0.00 | 100 | 906.2 |
| 20260901211908 | 55 | 281 | 2.6 | 6.1 | 0.00 | 0.00 | 0.00 | 100 | 906.1 |
| 20260901211814 | 55 | 279 | 2.6 | 6.1 | 0.00 | 0.00 | 0.00 | 100 | 906.1 |
| 20260901211659 | 55 | 276 | 1.7 | 6.1 | 0.00 | 0.00 | 0.00 | 100 | 906.1 |
| 20260901211606 | 55 | 279 | 1.7 | 5.2 | 0.00 | 0.00 | 0.00 | 100 | 906.1 |
| 20260901211450 | 55 | 278 | 2.6 | 5.2 | 0.00 | 0.00 | 0.00 | 100 | 906.0 |
| 20260901211357 | 55 | 282 | 2.6 | 5.2 | 0.00 | 0.00 | 0.00 | 100 | 905.9 |
| 20260901211242 | 55 | 285 | 2.6 | 5.2 | 0.00 | 0.00 | 0.00 | 100 | 905.7 |
| 20260901211137 | 55 | 288 | 2.6 | 5.2 | 0.00 | 0.00 | 0.00 | 100 | 905.9 |
| 20260901211032 | 55 | 288 | 1.7 | 5.2 | 0.00 | 0.00 | 0.00 | 100 | 906.3 |
| 20260901210939 | 55 | 294 | 2.6 | 6.1 | 0.00 | 0.00 | 0.00 | 100 | 909.0 |
| 20260901210824 | 55 | 293 | 2.6 | 6.1 | 0.00 | 0.00 | 0.00 | 100 | 910.8 |
| 20260901210741 | 55 | 295 | 2.6 | 6.1 | 0.00 | 0.00 | 0.00 | 100 | 906.0 |
| 20260901210626 | 55 | 294 | 2.6 | 6.1 | 0.00 | 0.00 | 0.00 | 100 | 906.1 |
| 20260901210534 | 55 | 292 | 2.6 | 6.1 | 0.00 | 0.00 | 0.00 | 100 | 906.1 |
| 20260901210417 | 55 | 288 | 2.6 | 5.2 | 0.00 | 0.00 | 0.00 | 100 | 906.6 |
| 20260901210323 | 55 | 288 | 3.5 | 6.1 | 0.00 | 0.00 | 0.00 | 100 | 906.6 |
| 20260901210209 | 55 | 291 | 3.5 | 5.2 | 0.00 | 0.00 | 0.00 | 100 | 907.2 |
| 20260901210104 | 55 | 290 | 3.5 | 5.2 | 0.00 | 0.00 | 0.00 | 100 | 912.3 |
| 20260901205959 | 55 | 291 | 3.5 | 5.2 | 0.00 | 0.00 | 0.00 | 100 | 906.3 |
| 20260901205905 | 55 | 287 | 3.5 | 5.2 | 0.00 | 0.00 | 0.00 | 100 | 906.3 |
| 20260901205751 | 55 | 289 | 2.6 | 5.2 | 0.00 | 0.00 | 0.00 | 100 | 906.2 |
| 20260901205657 | 55 | 286 | 2.6 | 5.2 | 0.00 | 0.00 | 0.00 | 100 | 906.1 |
| 20260901205542 | 55 | 283 | 2.6 | 5.2 | 0.00 | 0.00 | 0.00 | 100 | 906.2 |
| 20260901205448 | 55 | 279 | 2.6 | 5.2 | 0.00 | 0.00 | 0.00 | 100 | 906.1 |
| 20260901205333 | 55 | 274 | 2.6 | 5.2 | 0.00 | 0.00 | 0.00 | 100 | 906.1 |
| 20260901205240 | 55 | 271 | 2.6 | 4.3 | 0.00 | 0.00 | 0.00 | 100 | 906.2 |
| 20260901205125 | 55 | 275 | 1.7 | 4.3 | 0.00 | 0.00 | 0.00 | 100 | 906.7 |
| 20260901205031 | 55 | 276 | 1.7 | 4.3 | 0.00 | 0.00 | 0.00 | 100 | 906.7 |
| 20260901205020 | 55 | 276 | 1.7 | 4.3 | 0.00 | 0.00 | 0.00 | 100 | 909.7 |
| 20260901204926 | 55 | 274 | 1.7 | 4.3 | 0.00 | 0.00 | 0.00 | 100 | 909.7 |
| 20260901204832 | 55 | 273 | 1.7 | 4.3 | 0.00 | 0.00 | 0.00 | 100 | 910.2 |
| 20260901204718 | 55 | 266 | 1.7 | 4.3 | 0.00 | 0.00 | 0.00 | 100 | 906.3 |
| 20260901204624 | 55 | 259 | 1.7 | 3.5 | 0.00 | 0.00 | 0.00 | 100 | 906.2 |
| 20260901204509 | 55 | 257 | 1.7 | 3.5 | 0.00 | 0.00 | 0.00 | 100 | 906.2 |
| 20260901204415 | 55 | 256 | 1.7 | 3.5 | 0.00 | 0.00 | 0.00 | 100 | 906.1 |
| 20260901204300 | 55 | 259 | 1.7 | 3.5 | 0.00 | 0.00 | 0.00 | 100 | 906.1 |
| 20260901204206 | 55 | 264 | 1.7 | 3.5 | 0.00 | 0.00 | 0.00 | 100 | 906.2 |
| 20260901204052 | 55 | 259 | 0.9 | 2.6 | 0.00 | 0.00 | 0.00 | 100 | 906.2 |
| 20260901203958 | 55 | 251 | 0.9 | 3.5 | 0.00 | 0.00 | 0.00 | 100 | 906.2 |
| 20260901203948 | 54 | 251 | 0.9 | 3.5 | 0.00 | 0.00 | 0.00 | 100 | 906.0 |
| 20260901203842 | 54 | 241 | 0.9 | 3.5 | 0.00 | 0.00 | 0.00 | 100 | 906.0 |
| 20260901203749 | 54 | 236 | 0.9 | 3.5 | 0.00 | 0.00 | 0.00 | 100 | 906.0 |
| 20260901203634 | 55 | 234 | 0.9 | 3.5 | 0.00 | 0.00 | 0.00 | 100 | 906.0 |
| 20260901203540 | 55 | 234 | 0.9 | 1.7 | 0.00 | 0.00 | 0.00 | 100 | 906.0 |
| 20260901203425 | 55 | 234 | 0.9 | 2.6 | 0.00 | 0.00 | 0.00 | 100 | 906.6 |
| 20260901203330 | 55 | 236 | 0.9 | 2.6 | 0.00 | 0.00 | 0.00 | 100 | 907.8 |
| 20260901203227 | 55 | 235 | 0.9 | 2.6 | 0.00 | 0.00 | 0.00 | 100 | 909.8 |
| 20260901203133 | 55 | 232 | 0.9 | 2.6 | 0.00 | 0.00 | 0.00 | 100 | 906.6 |
| 20260901203019 | 55 | 235 | 1.7 | 2.6 | 0.00 | 0.00 | 0.00 | 100 | 906.2 |
| 20260901202914 | 55 | 230 | 1.7 | 4.3 | 0.00 | 0.00 | 0.00 | 100 | 906.3 |
| 20260901202809 | 55 | 235 | 1.7 | 4.3 | 0.00 | 0.00 | 0.00 | 100 | 906.5 |
| 20260901202716 | 55 | 234 | 1.7 | 4.3 | 0.00 | 0.00 | 0.00 | 100 | 906.5 |
| 20260901202600 | 55 | 237 | 2.6 | 3.5 | 0.00 | 0.00 | 0.00 | 100 | 909.0 |
| 20260901202507 | 55 | 239 | 2.6 | 3.5 | 0.00 | 0.00 | 0.00 | 100 | 909.0 |
| 20260901202352 | 55 | 239 | 2.6 | 3.5 | 0.00 | 0.00 | 0.00 | 100 | 907.2 |
| 20260901202257 | 55 | 240 | 2.6 | 3.5 | 0.00 | 0.00 | 0.00 | 100 | 906.2 |
| 20260901202143 | 55 | 240 | 2.6 | 3.5 | 0.00 | 0.00 | 0.00 | 100 | 906.2 |
| 20260901202049 | 55 | 241 | 2.6 | 5.2 | 0.00 | 0.00 | 0.00 | 100 | 906.1 |
| 20260901201934 | 55 | 242 | 2.6 | 5.2 | 0.00 | 0.00 | 0.00 | 100 | 906.1 |
| 20260901201830 | 55 | 242 | 2.6 | 5.2 | 0.00 | 0.00 | 0.00 | 100 | 905.9 |
| 20260901201724 | 55 | 245 | 2.6 | 5.2 | 0.00 | 0.00 | 0.00 | 100 | 906.0 |
| 20260901201630 | 55 | 248 | 2.6 | 5.2 | 0.00 | 0.00 | 0.00 | 100 | 906.1 |
| 20260901201516 | 55 | 253 | 2.6 | 5.2 | 0.00 | 0.00 | 0.00 | 100 | 906.4 |
| 20260901201433 | 55 | 256 | 2.6 | 5.2 | 0.00 | 0.00 | 0.00 | 100 | 906.4 |
| 20260901201318 | 55 | 257 | 2.6 | 4.3 | 0.00 | 0.00 | 0.00 | 100 | 909.2 |
| 20260901201224 | 55 | 255 | 2.6 | 4.3 | 0.00 | 0.00 | 0.00 | 100 | 911.0 |
| 20260901201109 | 55 | 256 | 2.6 | 4.3 | 0.00 | 0.00 | 0.00 | 100 | 906.2 |
| 20260901201016 | 55 | 255 | 2.6 | 4.3 | 0.00 | 0.00 | 0.00 | 100 | 906.2 |
| 20260901200901 | 55 | 256 | 2.6 | 4.3 | 0.00 | 0.00 | 0.00 | 100 | 906.3 |
| 20260901200757 | 55 | 255 | 2.6 | 4.3 | 0.00 | 0.00 | 0.00 | 100 | 906.1 |
| 20260901200651 | 55 | 258 | 2.6 | 5.2 | 0.00 | 0.00 | 0.00 | 100 | 905.9 |
| 20260901200557 | 55 | 260 | 2.6 | 5.2 | 0.00 | 0.00 | 0.00 | 100 | 905.9 |
| 20260901200443 | 55 | 260 | 2.6 | 5.2 | 0.00 | 0.00 | 0.00 | 100 | 905.8 |
| 20260901200349 | 55 | 253 | 2.6 | 5.2 | 0.00 | 0.00 | 0.00 | 100 | 905.9 |
| 20260901200234 | 55 | 249 | 1.7 | 4.3 | 0.00 | 0.00 | 0.00 | 100 | 906.0 |
| 20260901200140 | 55 | 240 | 1.7 | 4.3 | 0.00 | 0.00 | 0.00 | 100 | 906.0 |
| 20260901200025 | 55 | 239 | 1.7 | 3.5 | 0.00 | 0.00 | 0.00 | 100 | 906.8 |
| 20260901195931 | 55 | 239 | 2.6 | 3.5 | 0.00 | 0.00 | 0.00 | 100 | 906.8 |
| 20260901195812 | 55 | 240 | 2.6 | 5.2 | 0.00 | 0.00 | 0.00 | 100 | 910.9 |
| 20260901195718 | 55 | 241 | 3.5 | 5.2 | 0.00 | 0.00 | 0.00 | 100 | 905.9 |
| 20260901195613 | 55 | 239 | 3.5 | 5.2 | 0.00 | 0.00 | 0.00 | 100 | 905.9 |
| 20260901195519 | 55 | 239 | 3.5 | 5.2 | 0.00 | 0.00 | 0.00 | 100 | 905.9 |
| 20260901195405 | 55 | 239 | 3.5 | 5.2 | 0.00 | 0.00 | 0.00 | 100 | 906.2 |
| 20260901195310 | 55 | 241 | 2.6 | 5.2 | 0.00 | 0.00 | 0.00 | 100 | 906.5 |
| 20260901195156 | 55 | 242 | 3.5 | 5.2 | 0.00 | 0.00 | 0.00 | 100 | 907.4 |
| 20260901195101 | 55 | 243 | 3.5 | 5.2 | 0.00 | 0.00 | 0.00 | 100 | 910.6 |
| 20260901194947 | 55 | 247 | 3.5 | 5.2 | 0.00 | 0.00 | 0.00 | 100 | 906.1 |